GW3448 Weather Reports


Display with metric or nautical units.
time (UTC)temp
F
wind
direction
speed
MPH
gust
MPH
rain 1hr
in
rain 24hr
in
rain mn
in
humidity
%
barometer
mb
20260906235218 69 281 4.0 7.0 0.00 0.01 0.01 53 1013.6
20260906235155 69 261 2.0 7.0 0.00 0.01 0.01 54 1013.6
20260906235135 69 304 2.0 7.0 0.00 0.01 0.01 54 1013.6
20260906235116 69 273 2.0 7.0 0.00 0.01 0.01 55 1013.6
20260906235055 68 351 3.0 7.0 0.00 0.01 0.01 55 1013.6
20260906234750 68 263 2.0 7.0 0.00 0.01 0.01 55 1013.6
20260906234728 68 251 2.0 7.0 0.00 0.01 0.01 55 1013.5
20260906234707 68 250 2.0 6.0 0.00 0.01 0.01 55 1013.5
20260906234646 68 265 2.0 6.0 0.00 0.01 0.01 55 1013.5
20260906234610 68 254 2.0 6.0 0.00 0.01 0.01 55 1013.6
20260906234549 68 266 2.0 6.0 0.00 0.01 0.01 55 1013.5
20260906234528 68 244 2.0 6.0 0.00 0.01 0.01 55 1013.5
20260906234240 68 271 3.0 8.0 0.00 0.01 0.01 54 1013.5
20260906234206 68 268 3.0 8.0 0.00 0.01 0.01 54 1013.5
20260906234145 68 252 2.0 8.0 0.00 0.01 0.01 54 1013.5
20260906234122 68 246 2.0 8.0 0.00 0.01 0.01 54 1013.5
20260906234102 68 246 2.0 8.0 0.00 0.01 0.01 55 1013.5
20260906233759 68 258 3.0 8.0 0.00 0.01 0.01 54 1013.6
20260906233507 68 292 6.0 8.0 0.00 0.01 0.01 54 1013.5
20260906233217 68 267 4.0 7.0 0.00 0.01 0.01 54 1013.6
20260906233142 68 263 5.0 7.0 0.00 0.01 0.01 54 1013.6
20260906232849 68 263 4.0 8.0 0.00 0.01 0.01 54 1013.6
20260906232829 68 259 4.0 8.0 0.00 0.01 0.01 53 1013.6
20260906232807 68 258 3.0 8.0 0.00 0.01 0.01 54 1013.6
20260906232733 68 264 4.0 9.0 0.00 0.01 0.01 54 1013.6
20260906232712 68 235 4.0 9.0 0.00 0.01 0.01 54 1013.6
20260906232152 68 239 2.0 9.0 0.00 0.01 0.01 54 1013.6
20260906232117 68 284 4.0 9.0 0.00 0.01 0.01 54 1013.6
20260906231559 68 262 4.0 10.0 0.00 0.01 0.01 54 1013.6
20260906231538 68 255 3.0 10.0 0.00 0.01 0.01 55 1013.6
20260906231504 68 298 4.0 10.0 0.00 0.01 0.01 55 1013.6
20260906231442 68 271 4.0 10.0 0.00 0.01 0.01 54 1013.7
20260906230627 68 281 6.0 10.0 0.00 0.01 0.01 54 1013.7
20260906230605 68 261 6.0 10.0 0.00 0.01 0.01 54 1013.7
20260906230540 68 272 4.0 9.0 0.00 0.01 0.01 54 1013.7
20260906230209 68 262 3.0 9.0 0.00 0.01 0.01 54 1013.7
20260906230121 68 223 4.0 9.0 0.00 0.01 0.01 54 1013.8
20260906230057 68 286 5.0 9.0 0.00 0.01 0.01 54 1013.7
20260906230037 68 292 4.0 9.0 0.00 0.01 0.01 55 1013.7
20260906225708 68 272 1.0 9.0 0.00 0.01 0.01 55 1013.7
20260906225618 68 277 1.0 9.0 0.00 0.01 0.01 55 1013.7
20260906225556 68 269 2.0 9.0 0.00 0.01 0.01 56 1013.8
20260906225535 68 267 4.0 9.0 0.00 0.01 0.01 56 1013.7
20260906225203 68 254 5.0 9.0 0.00 0.01 0.01 54 1013.7
20260906225105 68 259 3.0 8.0 0.00 0.01 0.01 55 1013.7
20260906225003 68 273 4.0 8.0 0.00 0.01 0.01 55 1013.7
20260906224926 68 269 3.0 8.0 0.00 0.01 0.01 56 1013.7
20260906224904 68 232 2.0 8.0 0.00 0.01 0.01 56 1013.7
20260906224842 68 331 2.0 8.0 0.00 0.01 0.01 57 1013.7
20260906224808 68 298 2.0 8.0 0.00 0.01 0.01 56 1013.7
20260906224746 68 309 4.0 8.0 0.00 0.01 0.01 56 1013.7
20260906224453 68 253 2.0 11.0 0.00 0.01 0.01 56 1013.7
20260906224431 68 235 4.0 11.0 0.00 0.01 0.01 57 1013.7
20260906224127 68 272 3.0 11.0 0.00 0.01 0.01 55 1013.8
20260906223756 68 275 3.0 11.0 0.00 0.01 0.01 56 1013.7
20260906223658 68 257 4.0 11.0 0.00 0.01 0.01 56 1013.7
20260906223554 68 284 6.0 11.0 0.00 0.01 0.01 56 1013.7
20260906223517 68 261 3.0 11.0 0.00 0.01 0.01 55 1013.7
20260906223454 68 265 2.0 10.0 0.00 0.01 0.01 56 1013.7
20260906223431 68 285 2.0 10.0 0.00 0.01 0.01 56 1013.7
20260906223410 68 281 2.0 10.0 0.00 0.01 0.01 57 1013.7
20260906223336 68 262 1.0 10.0 0.00 0.01 0.01 56 1013.7
20260906223313 68 286 3.0 10.0 0.00 0.01 0.01 57 1013.7
20260906223025 68 279 4.0 10.0 0.00 0.01 0.01 57 1013.7
20260906223002 68 277 4.0 10.0 0.00 0.01 0.01 56 1013.7
20260906222348 68 234 4.0 10.0 0.00 0.01 0.01 55 1013.7
20260906222248 68 252 5.0 10.0 0.00 0.01 0.01 56 1013.7
20260906222146 68 221 4.0 10.0 0.00 0.01 0.01 56 1013.7
20260906222048 68 271 4.0 10.0 0.00 0.01 0.01 56 1013.7
20260906221946 68 254 4.0 10.0 0.00 0.01 0.01 57 1013.7
20260906221845 68 270 2.0 10.0 0.00 0.01 0.01 56 1013.6
20260906221744 68 255 3.0 10.0 0.00 0.01 0.01 57 1013.6
20260906221643 68 261 5.0 10.0 0.00 0.01 0.01 57 1013.6
20260906221551 68 282 6.0 10.0 0.00 0.01 0.01 56 1013.6
20260906221529 68 275 6.0 10.0 0.00 0.01 0.01 56 1013.6
20260906221505 68 250 6.0 9.0 0.00 0.01 0.01 56 1013.6
20260906221444 68 270 5.0 9.0 0.00 0.01 0.01 56 1013.6
20260906221423 68 275 5.0 9.0 0.00 0.01 0.01 56 1013.6
20260906221118 68 237 4.0 9.0 0.00 0.01 0.01 56 1013.6
20260906221059 68 269 3.0 9.0 0.00 0.01 0.01 57 1013.6
20260906221036 68 286 4.0 8.0 0.00 0.01 0.01 57 1013.6
20260906221014 68 284 3.0 8.0 0.00 0.01 0.01 57 1013.5
20260906220435 68 265 4.0 8.0 0.00 0.01 0.01 57 1013.6
20260906220414 68 315 3.0 10.0 0.00 0.01 0.01 57 1013.5
20260906220353 68 273 2.0 11.0 0.00 0.01 0.01 57 1013.5
20260906220317 68 252 3.0 11.0 0.00 0.01 0.01 57 1013.5
20260906220256 68 292 5.0 11.0 0.00 0.01 0.01 56 1013.5
20260906215737 68 285 4.0 11.0 0.00 0.01 0.01 55 1013.5
20260906215703 68 276 5.0 11.0 0.00 0.01 0.01 55 1013.5
20260906215329 68 281 5.0 11.0 0.00 0.01 0.01 55 1013.5
20260906215230 68 248 4.0 11.0 0.00 0.01 0.01 55 1013.5
20260906215129 68 275 3.0 8.0 0.00 0.01 0.01 56 1013.5
20260906215030 68 251 3.0 8.0 0.00 0.01 0.01 55 1013.5
20260906214930 68 268 2.0 6.0 0.00 0.01 0.01 56 1013.6
20260906214830 68 218 2.0 6.0 0.00 0.01 0.01 56 1013.6
20260906214729 68 259 2.0 6.0 0.00 0.01 0.01 56 1013.6
20260906214633 68 267 2.0 6.0 0.00 0.01 0.01 56 1013.6
20260906214532 68 17 4.0 6.0 0.00 0.01 0.01 55 1013.5
20260906214430 68 252 4.0 6.0 0.00 0.01 0.01 55 1013.5
20260906214331 68 273 2.0 6.0 0.00 0.01 0.01 56 1013.5
20260906214229 68 298 2.0 6.0 0.00 0.01 0.01 56 1013.6
20260906214129 68 284 2.0 6.0 0.00 0.01 0.01 56 1013.6
20260906214029 68 258 2.0 6.0 0.00 0.01 0.01 56 1013.6
20260906213928 68 313 2.0 6.0 0.00 0.01 0.01 56 1013.5
20260906213828 68 297 2.0 6.0 0.00 0.01 0.01 57 1013.5
20260906213729 68 340 2.0 6.0 0.00 0.01 0.01 57 1013.5
20260906213659 68 277 2.0 6.0 0.00 0.01 0.01 56 1013.5
20260906213622 68 230 3.0 6.0 0.00 0.01 0.01 56 1013.5
20260906213600 68 257 3.0 6.0 0.00 0.01 0.01 56 1013.5
20260906213230 68 278 2.0 6.0 0.00 0.01 0.01 56 1013.5
20260906213129 68 261 1.0 6.0 0.00 0.01 0.01 57 1013.5
20260906213028 68 271 2.0 6.0 0.00 0.01 0.01 56 1013.5
20260906212929 67 192 2.0 6.0 0.00 0.01 0.01 56 1013.5
20260906212829 67 248 2.0 8.0 0.00 0.01 0.01 57 1013.5
20260906212731 67 288 2.0 8.0 0.00 0.01 0.01 56 1013.5
20260906212628 67 254 2.0 8.0 0.00 0.01 0.01 56 1013.6
20260906212528 67 262 2.0 8.0 0.00 0.01 0.01 56 1013.5
20260906212428 67 252 2.0 8.0 0.00 0.01 0.01 55 1013.5
20260906212331 67 262 3.0 8.0 0.00 0.01 0.01 55 1013.5
20260906212230 67 282 4.0 8.0 0.00 0.01 0.01 54 1013.5
20260906212129 67 288 4.0 8.0 0.00 0.01 0.01 55 1013.4
20260906212040 67 238 4.0 8.0 0.00 0.01 0.01 55 1013.5
20260906211928 67 246 4.0 8.0 0.00 0.01 0.01 55 1013.5
20260906211829 67 286 3.0 7.0 0.00 0.01 0.01 56 1013.5
20260906211735 67 292 3.0 7.0 0.00 0.01 0.01 56 1013.4
20260906211713 67 302 2.0 7.0 0.00 0.01 0.01 56 1013.5
20260906211654 67 254 3.0 7.0 0.00 0.01 0.01 56 1013.5
20260906211618 67 267 3.0 7.0 0.00 0.01 0.01 55 1013.5
20260906211326 67 263 3.0 8.0 0.00 0.01 0.01 55 1013.5
20260906211305 67 267 2.0 8.0 0.00 0.01 0.01 55 1013.4
20260906210943 67 289 2.0 10.0 0.00 0.01 0.01 57 1013.4
20260906210919 67 311 2.0 10.0 0.00 0.01 0.01 57 1013.4
20260906210859 67 298 2.0 10.0 0.00 0.01 0.01 56 1013.4
20260906210534 67 257 3.0 10.0 0.00 0.01 0.01 56 1013.4
20260906210428 67 271 4.0 10.0 0.00 0.01 0.01 56 1013.5
20260906210330 67 265 5.0 10.0 0.00 0.01 0.01 56 1013.5
20260906210231 67 267 6.0 10.0 0.00 0.01 0.01 55 1013.5
20260906210153 67 264 7.0 10.0 0.00 0.01 0.01 55 1013.6
20260906210131 67 313 5.0 10.0 0.00 0.01 0.01 55 1013.5
20260906210056 68 263 3.0 10.0 0.00 0.01 0.01 56 1013.5
20260906205725 68 269 3.0 9.0 0.00 0.01 0.01 56 1013.5
20260906205625 68 258 3.0 9.0 0.00 0.01 0.01 56 1013.6
20260906205528 68 273 3.0 9.0 0.00 0.01 0.01 56 1013.6
20260906205437 68 263 4.0 9.0 0.00 0.01 0.01 56 1013.6
20260906205414 68 306 4.0 9.0 0.00 0.01 0.01 55 1013.6
20260906205353 68 247 2.0 9.0 0.00 0.01 0.01 55 1013.5
20260906205025 68 305 3.0 10.0 0.00 0.01 0.01 55 1013.6
20260906204932 68 259 4.0 10.0 0.00 0.01 0.01 55 1013.6
20260906204909 68 313 5.0 10.0 0.00 0.01 0.01 55 1013.6
20260906204847 68 311 4.0 10.0 0.00 0.01 0.01 55 1013.6
20260906204522 68 266 3.0 10.0 0.00 0.01 0.01 54 1013.5
20260906204419 68 259 2.0 10.0 0.00 0.01 0.01 54 1013.5
20260906204318 68 269 3.0 10.0 0.00 0.01 0.01 55 1013.6
20260906204211 68 232 5.0 10.0 0.00 0.01 0.01 54 1013.6
20260906204111 68 252 6.0 10.0 0.00 0.01 0.01 54 1013.7
20260906204021 68 235 5.0 10.0 0.00 0.01 0.01 54 1013.7
20260906203909 68 267 3.0 10.0 0.00 0.01 0.01 55 1013.7
20260906203833 68 259 3.0 8.0 0.00 0.01 0.01 57 1013.7
20260906203809 68 319 3.0 9.0 0.00 0.01 0.01 55 1013.7
20260906203749 68 259 2.0 9.0 0.00 0.01 0.01 55 1013.7
20260906203728 68 289 2.0 9.0 0.00 0.01 0.01 56 1013.7
20260906203420 68 342 3.0 9.0 0.00 0.01 0.01 55 1013.7
20260906203400 68 252 3.0 9.0 0.00 0.01 0.01 55 1013.8
20260906203338 68 315 4.0 9.0 0.00 0.01 0.01 55 1013.7
20260906203316 68 259 5.0 9.0 0.00 0.01 0.01 54 1013.8
20260906202702 68 251 4.0 9.0 0.00 0.01 0.01 54 1013.8
20260906202601 68 297 4.0 8.0 0.00 0.01 0.01 53 1013.8
20260906202514 68 255 4.0 8.0 0.00 0.01 0.01 54 1013.8
20260906202400 68 271 4.0 8.0 0.00 0.01 0.01 55 1013.8
20260906202300 68 263 2.0 8.0 0.00 0.01 0.01 54 1013.8
20260906202159 68 261 2.0 8.0 0.00 0.01 0.01 55 1013.8
20260906202125 67 294 4.0 8.0 0.00 0.01 0.01 55 1013.8
20260906202103 67 284 5.0 8.0 0.00 0.01 0.01 55 1013.8
20260906202028 67 275 3.0 8.0 0.00 0.01 0.01 55 1013.8
20260906201656 67 294 2.0 8.0 0.00 0.01 0.01 56 1013.8
20260906201556 67 296 1.0 8.0 0.00 0.01 0.01 56 1013.8
20260906201507 67 259 2.0 8.0 0.00 0.01 0.01 56 1013.8
20260906201408 67 269 4.0 8.0 0.00 0.01 0.01 56 1013.8
20260906201345 67 300 4.0 8.0 0.00 0.01 0.01 56 1013.8
20260906201326 67 306 4.0 8.0 0.00 0.01 0.01 57 1013.9
20260906201009 67 279 3.0 8.0 0.00 0.01 0.01 57 1013.8
20260906200934 67 333 3.0 8.0 0.00 0.01 0.01 56 1013.8
20260906200912 67 276 3.0 9.0 0.00 0.01 0.01 56 1013.8
20260906200851 67 304 4.0 9.0 0.00 0.01 0.01 57 1013.8
20260906200830 67 313 3.0 9.0 0.00 0.01 0.01 56 1013.8
20260906200807 67 317 3.0 9.0 0.00 0.01 0.01 56 1013.9
20260906200155 67 271 3.0 9.0 0.00 0.01 0.01 55 1013.9
20260906200134 67 263 4.0 9.0 0.00 0.01 0.01 55 1013.8
20260906200111 67 261 3.0 9.0 0.00 0.01 0.01 55 1013.8
20260906200036 67 250 2.0 8.0 0.00 0.01 0.01 56 1013.8
20260906200016 67 276 2.0 9.0 0.00 0.01 0.01 57 1013.8
20260906195955 67 275 3.0 9.0 0.00 0.01 0.01 56 1013.8
20260906195704 67 42 4.0 9.0 0.00 0.01 0.01 56 1013.8
20260906195628 67 11 3.0 9.0 0.00 0.01 0.01 56 1013.8
20260906195606 67 320 3.0 9.0 0.00 0.01 0.01 57 1013.8
20260906195544 67 294 4.0 9.0 0.00 0.01 0.01 57 1013.8
20260906195520 67 296 5.0 9.0 0.00 0.01 0.01 56 1013.8
20260906195500 67 250 4.0 9.0 0.00 0.01 0.01 56 1013.8
20260906195155 67 281 4.0 8.0 0.00 0.01 0.01 56 1013.8
20260906195133 68 294 2.0 8.0 0.00 0.01 0.01 56 1013.8
20260906195113 68 269 3.0 8.0 0.00 0.01 0.01 55 1013.7
20260906195051 68 313 4.0 8.0 0.00 0.01 0.01 56 1013.8
20260906195016 68 269 4.0 8.0 0.00 0.01 0.01 56 1013.8
20260906194726 68 265 2.0 8.0 0.00 0.01 0.01 57 1013.7
20260906194705 68 304 4.0 8.0 0.00 0.01 0.01 56 1013.7
20260906194646 68 277 3.0 8.0 0.00 0.01 0.01 55 1013.8
20260906194112 68 256 3.0 6.0 0.00 0.01 0.01 56 1013.8
20260906194052 68 236 2.0 6.0 0.00 0.01 0.01 55 1013.8
20260906193749 68 323 2.0 6.0 0.00 0.01 0.01 58 1013.9
20260906193728 68 292 3.0 6.0 0.00 0.01 0.01 57 1013.8
20260906193708 68 278 2.0 5.0 0.00 0.01 0.01 56 1013.9
20260906193643 68 276 2.0 5.0 0.00 0.01 0.01 57 1013.8
20260906193614 67 348 2.0 8.0 0.00 0.01 0.01 57 1013.9
20260906193322 67 270 2.0 8.0 0.00 0.01 0.01 57 1013.9
20260906192522 67 17 2.0 9.0 0.00 0.01 0.01 56 1013.9
20260906192230 67 269 4.0 9.0 0.00 0.01 0.01 56 1013.9
20260906192209 67 224 3.0 9.0 0.00 0.01 0.01 57 1013.9
20260906191828 67 289 3.0 9.0 0.00 0.01 0.01 58 1013.8
20260906191730 67 305 4.0 9.0 0.00 0.01 0.01 57 1013.8
20260906191628 67 304 3.0 9.0 0.00 0.01 0.01 57 1013.9
20260906191529 67 286 4.0 9.0 0.00 0.01 0.01 57 1013.8
20260906191439 66 263 4.0 9.0 0.00 0.01 0.01 57 1013.8
20260906191331 66 331 3.0 9.0 0.00 0.01 0.01 58 1013.9
20260906191229 66 242 3.0 9.0 0.00 0.01 0.01 58 1013.9
20260906191130 66 337 4.0 9.0 0.00 0.01 0.01 57 1013.9
20260906191029 66 17 4.0 9.0 0.00 0.01 0.01 58 1013.9
20260906190936 66 352 3.0 9.0 0.00 0.01 0.01 59 1013.9
20260906190829 66 263 3.0 9.0 0.00 0.01 0.01 57 1013.9
20260906190730 66 322 3.0 9.0 0.00 0.01 0.01 58 1013.9
20260906190629 66 269 4.0 9.0 0.00 0.01 0.01 57 1013.9
20260906190532 66 283 4.0 9.0 0.00 0.01 0.01 57 1013.9
20260906190434 66 296 4.0 9.0 0.00 0.01 0.01 58 1013.9
20260906190343 66 284 6.0 11.0 0.00 0.01 0.01 57 1013.9
20260906190319 66 258 5.0 11.0 0.00 0.01 0.01 56 1013.9
20260906190259 66 238 3.0 11.0 0.00 0.01 0.01 59 1014.0
20260906185934 66 252 2.0 11.0 0.00 0.01 0.01 61 1014.0
20260906185857 66 219 2.0 11.0 0.00 0.01 0.01 60 1014.0
20260906185839 66 244 2.0 11.0 0.00 0.01 0.01 61 1014.0
20260906185818 66 290 4.0 11.0 0.00 0.01 0.01 62 1014.0
20260906185525 66 314 2.0 11.0 0.00 0.01 0.01 62 1014.0
20260906185447 65 279 2.0 5.0 0.00 0.01 0.01 62 1014.0
20260906185426 65 279 2.0 5.0 0.00 0.01 0.01 62 1014.0
20260906185405 65 243 2.0 5.0 0.00 0.01 0.01 62 1014.0
20260906185342 65 352 2.0 6.0 0.00 0.01 0.01 62 1014.0
20260906184730 65 287 2.0 8.0 0.00 0.01 0.01 64 1014.1
20260906184630 65 281 2.0 8.0 0.00 0.01 0.01 64 1014.1
20260906184529 65 261 2.0 8.0 0.00 0.01 0.01 64 1014.1
20260906184447 64 309 2.0 8.0 0.00 0.01 0.01 64 1014.1
20260906184409 64 333 3.0 8.0 0.00 0.01 0.01 65 1014.1
20260906184346 64 303 4.0 8.0 0.00 0.01 0.01 65 1014.1
20260906184326 64 276 3.0 8.0 0.00 0.01 0.01 65 1014.2
20260906184306 64 263 4.0 8.0 0.00 0.01 0.01 66 1014.2
20260906184245 64 265 5.0 8.0 0.00 0.01 0.01 64 1014.2
20260906184210 64 248 4.0 8.0 0.00 0.01 0.01 64 1014.2
20260906184148 64 236 2.0 8.0 0.00 0.01 0.01 63 1014.2
20260906183628 64 283 2.0 8.0 0.00 0.01 0.01 66 1014.3
20260906183553 64 242 3.0 8.0 0.00 0.01 0.01 66 1014.2
20260906183531 64 316 4.0 8.0 0.00 0.01 0.01 66 1014.2
20260906183511 64 333 4.0 8.0 0.00 0.01 0.01 66 1014.2
20260906183451 64 243 2.0 8.0 0.00 0.01 0.01 69 1014.3
20260906182918 63 202 2.0 8.0 0.00 0.01 0.01 68 1014.3
20260906182857 63 148 2.0 8.0 0.00 0.01 0.01 68 1014.3
20260906182835 63 228 3.0 8.0 0.00 0.01 0.01 70 1014.4
20260906182219 63 271 2.0 8.0 0.00 0.01 0.01 69 1014.4
20260906182119 63 269 2.0 8.0 0.00 0.01 0.01 69 1014.3
20260906182018 63 242 3.0 8.0 0.00 0.01 0.01 69 1014.3
20260906181912 62 286 2.0 8.0 0.00 0.01 0.01 70 1014.4
20260906181812 62 227 2.0 8.0 0.00 0.01 0.01 70 1014.3
20260906181711 62 248 2.0 8.0 0.00 0.01 0.01 70 1014.3
20260906181643 62 277 2.0 8.0 0.00 0.01 0.01 71 1014.4
20260906181620 62 296 2.0 8.0 0.00 0.01 0.01 70 1014.4
20260906181557 62 222 3.0 8.0 0.00 0.01 0.01 70 1014.4
20260906181521 62 244 5.0 10.0 0.00 0.01 0.01 70 1014.4
20260906181500 62 289 5.0 10.0 0.00 0.01 0.01 71 1014.4
20260906181441 62 259 4.0 10.0 0.00 0.01 0.01 72 1014.4
20260906181419 62 247 4.0 10.0 0.00 0.01 0.01 72 1014.4
20260906181359 62 156 4.0 10.0 0.00 0.01 0.01 73 1014.3
20260906181322 62 266 4.0 11.0 0.00 0.01 0.01 73 1014.3
20260906181034 62 260 3.0 11.0 0.00 0.01 0.01 73 1014.3
20260906180737 62 269 2.0 11.0 0.00 0.01 0.01 73 1014.2
20260906180436 62 280 4.0 11.0 0.00 0.01 0.01 74 1014.2
20260906180144 61 255 4.0 11.0 0.00 0.01 0.01 74 1014.2
20260906180122 61 348 3.0 11.0 0.00 0.01 0.01 75 1014.2
20260906175816 61 307 4.0 11.0 0.00 0.01 0.01 76 1014.2
20260906175755 61 286 5.0 11.0 0.00 0.01 0.01 77 1014.1
20260906175733 60 274 6.0 11.0 0.00 0.01 0.01 77 1014.1
20260906175709 60 261 6.0 11.0 0.00 0.01 0.01 77 1014.1
20260906175118 60 261 1.0 7.0 0.00 0.01 0.01 80 1014.2
20260906175054 60 289 2.0 7.0 0.00 0.01 0.01 80 1014.2
20260906175034 60 247 2.0 8.0 0.00 0.01 0.01 80 1014.2
20260906174714 59 239 4.0 8.0 0.00 0.01 0.01 80 1014.3
20260906174651 59 236 4.0 8.0 0.00 0.01 0.01 80 1014.4
20260906174630 59 268 4.0 8.0 0.00 0.01 0.01 80 1014.3
20260906174605 59 265 3.0 8.0 0.00 0.01 0.01 81 1014.4
20260906174530 59 274 4.0 8.0 0.00 0.01 0.01 81 1014.4
20260906174508 59 275 6.0 8.0 0.00 0.01 0.01 80 1014.4
20260906173947 59 254 4.0 8.0 0.00 0.01 0.01 81 1014.4
20260906173914 59 246 4.0 8.0 0.00 0.01 0.01 81 1014.4
20260906173541 59 232 3.0 8.0 0.00 0.01 0.01 82 1014.4
20260906173443 59 262 3.0 8.0 0.00 0.01 0.01 82 1014.4
20260906173343 58 322 3.0 8.0 0.00 0.01 0.01 81 1014.4
20260906173239 58 249 5.0 8.0 0.00 0.01 0.01 81 1014.4
20260906173140 58 255 6.0 8.0 0.00 0.01 0.01 81 1014.4
20260906173039 58 287 5.0 8.0 0.00 0.01 0.01 81 1014.4
20260906173016 58 263 5.0 8.0 0.00 0.01 0.01 81 1014.4
20260906172955 58 269 5.0 8.0 0.00 0.01 0.01 81 1014.3
20260906172920 58 250 3.0 7.0 0.00 0.01 0.01 81 1014.4
20260906172630 58 242 3.0 7.0 0.00 0.01 0.01 82 1014.4
20260906172609 58 281 2.0 7.0 0.00 0.01 0.01 82 1014.3
20260906172231 58 328 2.0 7.0 0.00 0.01 0.01 83 1014.3
20260906172130 58 267 3.0 7.0 0.00 0.01 0.01 83 1014.3
20260906172030 58 271 4.0 7.0 0.00 0.01 0.01 82 1014.3
20260906171959 58 267 3.0 7.0 0.00 0.01 0.01 83 1014.4
20260906171937 58 269 2.0 8.0 0.00 0.01 0.01 83 1014.4
20260906171902 58 274 3.0 8.0 0.00 0.01 0.01 83 1014.4
20260906171528 58 263 2.0 8.0 0.00 0.01 0.01 83 1014.3
20260906171429 58 242 2.0 8.0 0.00 0.01 0.01 83 1014.4
20260906171335 58 249 2.0 8.0 0.01 0.01 0.01 83 1014.4
20260906171228 58 259 2.0 8.0 0.01 0.01 0.01 83 1014.4
20260906171127 58 259 3.0 8.0 0.01 0.01 0.01 83 1014.4
20260906171054 58 277 5.0 8.0 0.01 0.01 0.01 83 1014.4
20260906171031 58 244 5.0 8.0 0.01 0.01 0.01 83 1014.4
20260906171010 58 261 3.0 6.0 0.01 0.01 0.01 83 1014.4
20260906170625 58 270 3.0 6.0 0.01 0.01 0.01 84 1014.4
20260906170522 58 264 3.0 6.0 0.01 0.01 0.01 84 1014.4
20260906170426 58 254 2.0 6.0 0.01 0.01 0.01 84 1014.4
20260906170331 58 258 2.0 6.0 0.01 0.01 0.01 84 1014.4
20260906170222 57 261 3.0 7.0 0.01 0.01 0.01 84 1014.4
20260906170140 58 259 2.0 7.0 0.01 0.01 0.01 84 1014.4
20260906170118 57 263 1.0 7.0 0.01 0.01 0.01 84 1014.4
20260906170057 57 263 2.0 7.0 0.01 0.01 0.01 83 1014.4
20260906165740 57 264 3.0 7.0 0.01 0.01 0.01 83 1014.3
20260906165717 57 270 4.0 8.0 0.01 0.01 0.01 83 1014.3
20260906165657 57 251 3.0 8.0 0.01 0.01 0.01 83 1014.3
20260906165351 57 267 2.0 8.0 0.01 0.01 0.01 84 1014.2
20260906165330 57 317 2.0 8.0 0.01 0.01 0.01 84 1014.2
20260906165001 57 289 1.0 8.0 0.01 0.01 0.01 83 1014.2
20260906164902 57 252 2.0 8.0 0.01 0.01 0.01 84 1014.2
20260906164802 57 279 3.0 8.0 0.01 0.01 0.01 84 1014.1
20260906164656 57 266 3.0 8.0 0.01 0.01 0.01 84 1014.1
20260906164555 57 260 2.0 9.0 0.01 0.01 0.01 84 1014.0
20260906164456 57 276 3.0 9.0 0.01 0.01 0.01 84 1014.0
20260906164357 57 284 3.0 9.0 0.01 0.01 0.01 84 1014.0
20260906164315 57 284 3.0 9.0 0.01 0.01 0.01 84 1013.9
20260906164252 57 291 3.0 9.0 0.01 0.01 0.01 84 1013.9
20260906164229 57 282 4.0 9.0 0.01 0.01 0.01 84 1013.9
20260906164208 57 281 4.0 9.0 0.01 0.01 0.01 84 1013.9
20260906163901 57 269 4.0 9.0 0.01 0.01 0.01 84 1013.9
20260906163841 57 251 4.0 9.0 0.01 0.01 0.01 84 1013.9
20260906163820 57 276 4.0 8.0 0.01 0.01 0.01 84 1014.0
20260906163525 57 267 3.0 9.0 0.01 0.01 0.01 84 1014.0
20260906163452 57 254 2.0 11.0 0.01 0.01 0.01 84 1014.1
20260906163430 57 284 3.0 11.0 0.01 0.01 0.01 84 1014.1
20260906163410 57 269 4.0 11.0 0.01 0.01 0.01 84 1014.1
20260906163349 57 252 4.0 11.0 0.01 0.01 0.01 84 1014.1
20260906163044 56 275 5.0 11.0 0.01 0.01 0.01 84 1014.1
20260906163024 56 268 5.0 11.0 0.01 0.01 0.01 84 1014.2
20260906163003 56 262 5.0 11.0 0.01 0.01 0.01 84 1014.2
20260906162942 56 255 6.0 11.0 0.01 0.01 0.01 84 1014.2
20260906162921 56 285 5.0 11.0 0.01 0.01 0.01 84 1014.2
20260906162845 56 261 3.0 9.0 0.01 0.01 0.01 84 1014.2
20260906162824 56 236 4.0 8.0 0.01 0.01 0.01 84 1014.2
20260906162803 56 316 3.0 8.0 0.01 0.01 0.01 84 1014.2
20260906162514 56 271 5.0 8.0 0.01 0.01 0.01 84 1014.1
20260906161938 56 280 4.0 7.0 0.01 0.01 0.01 84 1014.0
20260906161646 56 259 3.0 8.0 0.00 0.00 0.01 84 1014.0
20260906161613 56 265 3.0 8.0 0.00 0.00 0.01 84 1014.1
20260906161322 56 273 4.0 8.0 0.00 0.00 0.00 84 1014.2
20260906161032 56 274 3.0 8.0 0.00 0.00 0.00 84 1014.2
20260906160956 56 259 4.0 8.0 0.00 0.00 0.00 84 1014.3
20260906160935 56 254 4.0 10.0 0.00 0.00 0.00 84 1014.3
20260906160915 56 265 4.0 10.0 0.00 0.00 0.00 83 1014.4
20260906160851 56 288 4.0 10.0 0.00 0.00 0.00 83 1014.5
20260906160828 56 268 3.0 10.0 0.00 0.00 0.00 83 1014.5
20260906160754 57 318 3.0 10.0 0.00 0.00 0.00 83 1014.6
20260906160735 57 286 3.0 10.0 0.00 0.00 0.00 83 1014.7
20260906160713 57 242 3.0 10.0 0.00 0.00 0.00 83 1014.7
20260906160652 57 277 4.0 10.0 0.00 0.00 0.00 83 1014.8
20260906160117 57 213 4.0 9.0 0.00 0.00 0.00 83 1014.9
20260906155825 57 217 3.0 9.0 0.00 0.00 0.00 82 1014.9
20260906155805 57 275 3.0 8.0 0.00 0.00 0.00 82 1015.0
20260906155501 57 271 4.0 8.0 0.00 0.00 0.00 81 1015.0
20260906155440 57 258 4.0 8.0 0.00 0.00 0.00 81 1015.0
20260906155419 57 290 4.0 8.0 0.00 0.00 0.00 81 1015.1
20260906155118 57 255 4.0 8.0 0.00 0.00 0.00 80 1015.1
20260906155054 57 188 4.0 8.0 0.00 0.00 0.00 79 1015.1
20260906155033 57 240 4.0 8.0 0.00 0.00 0.00 79 1015.2
20260906155011 58 234 3.0 8.0 0.00 0.00 0.00 79 1015.2
20260906154950 58 266 2.0 8.0 0.00 0.00 0.00 79 1015.2
20260906154415 58 198 3.0 8.0 0.00 0.00 0.00 78 1015.2
20260906154354 58 172 2.0 8.0 0.00 0.00 0.00 77 1015.2
20260906154333 58 267 1.0 8.0 0.00 0.00 0.00 77 1015.1
20260906154300 58 284 2.0 8.0 0.00 0.00 0.00 77 1015.1
20260906154240 58 279 3.0 8.0 0.00 0.00 0.00 77 1015.1
20260906154219 58 246 2.0 8.0 0.00 0.00 0.00 76 1015.0
20260906154157 58 250 2.0 8.0 0.00 0.00 0.00 76 1014.9
20260906153355 58 261 2.0 8.0 0.00 0.00 0.00 76 1015.0
20260906152820 58 267 1.0 3.0 0.00 0.00 0.00 77 1015.0
20260906152759 58 267 1.0 3.0 0.00 0.00 0.00 77 1015.1
20260906152739 58 257 1.0 3.0 0.00 0.00 0.00 77 1015.1
20260906152448 58 240 1.0 2.0 0.00 0.00 0.00 77 1015.1
20260906152414 58 238 1.0 5.0 0.00 0.00 0.00 77 1015.2
20260906152123 58 215 0.0 7.0 0.00 0.00 0.00 77 1015.1
20260906151754 58 186 0.0 7.0 0.00 0.00 0.00 76 1015.1
20260906151653 58 177 0.0 7.0 0.00 0.00 0.00 77 1015.2
20260906151553 58 222 0.0 7.0 0.00 0.00 0.00 77 1015.2
20260906151453 58 200 1.0 7.0 0.00 0.00 0.00 76 1015.2
20260906151347 58 200 2.0 7.0 0.00 0.00 0.00 76 1015.3
20260906151241 58 202 4.0 7.0 0.00 0.00 0.00 76 1015.3
20260906151138 58 136 4.0 7.0 0.00 0.00 0.00 77 1015.3
20260906151115 57 190 3.0 7.0 0.00 0.00 0.00 77 1015.3
20260906151053 58 185 2.0 6.0 0.00 0.00 0.00 77 1015.3
20260906151031 58 165 2.0 5.0 0.00 0.00 0.00 77 1015.2
20260906150725 57 171 2.0 5.0 0.00 0.00 0.00 77 1015.1
20260906150704 57 175 2.0 4.0 0.00 0.00 0.00 76 1015.0
20260906150329 57 173 2.0 4.0 0.00 0.00 0.00 76 1014.7
20260906150256 57 159 2.0 4.0 0.00 0.00 0.00 76 1014.6
20260906150220 57 150 2.0 3.0 0.00 0.00 0.00 77 1014.6
20260906150200 57 167 2.0 3.0 0.00 0.00 0.00 77 1014.5
20260906145829 57 181 0.0 3.0 0.00 0.00 0.00 77 1014.3
20260906145732 57 256 0.0 3.0 0.00 0.00 0.00 77 1014.2
20260906145629 57 256 0.0 3.0 0.00 0.00 0.00 77 1014.1
20260906145530 57 256 0.0 3.0 0.00 0.00 0.00 77 1014.1
20260906145431 57 256 0.0 3.0 0.00 0.00 0.00 77 1014.0
20260906145401 57 256 1.0 3.0 0.00 0.00 0.00 77 1014.0
20260906145339 57 249 2.0 3.0 0.00 0.00 0.00 77 1014.0
20260906145306 57 250 1.0 3.0 0.00 0.00 0.00 77 1014.0
20260906145239 57 232 0.0 3.0 0.00 0.00 0.00 77 1013.9
20260906145219 57 248 0.0 3.0 0.00 0.00 0.00 77 1013.9
20260906145200 57 265 0.0 3.0 0.00 0.00 0.00 77 1013.9
20260906145139 57 265 0.0 4.0 0.00 0.00 0.00 77 1013.9
20260906145106 57 265 2.0 4.0 0.00 0.00 0.00 76 1013.8
20260906145046 57 252 2.0 4.0 0.00 0.00 0.00 76 1013.8
20260906145021 57 253 2.0 4.0 0.00 0.00 0.00 76 1013.8
20260906145001 57 273 2.0 4.0 0.00 0.00 0.00 76 1013.8
20260906144939 57 265 2.0 4.0 0.00 0.00 0.00 76 1013.8
20260906144636 57 292 2.0 5.0 0.00 0.00 0.00 75 1013.8
20260906144116 57 252 2.0 5.0 0.00 0.00 0.00 75 1013.8
20260906143812 57 263 2.0 5.0 0.00 0.00 0.00 74 1013.8
20260906143229 57 257 2.0 5.0 0.00 0.00 0.00 74 1013.8
20260906143154 57 268 2.0 4.0 0.00 0.00 0.00 74 1013.8
20260906143132 57 255 2.0 4.0 0.00 0.00 0.00 75 1013.8
20260906142828 57 279 2.0 4.0 0.00 0.00 0.00 75 1013.7
20260906142752 57 275 2.0 4.0 0.00 0.00 0.00 74 1013.8
20260906142731 57 257 2.0 4.0 0.00 0.00 0.00 75 1013.8
20260906142401 57 265 2.0 4.0 0.00 0.00 0.00 75 1013.8
20260906142306 57 281 2.0 4.0 0.00 0.00 0.00 74 1013.8
20260906142204 57 277 3.0 4.0 0.00 0.00 0.00 74 1013.8
20260906142102 57 262 3.0 4.0 0.00 0.00 0.00 74 1013.8
20260906142001 57 275 2.0 4.0 0.00 0.00 0.00 75 1013.8
20260906141902 57 260 2.0 4.0 0.00 0.00 0.00 75 1013.8
20260906141830 57 261 2.0 4.0 0.00 0.00 0.00 75 1013.9
20260906141808 57 276 2.0 4.0 0.00 0.00 0.00 75 1013.9
20260906141733 57 277 2.0 4.0 0.00 0.00 0.00 74 1014.0
20260906141400 57 265 0.0 4.0 0.00 0.00 0.00 75 1014.0
20260906141303 57 265 0.0 0.0 0.00 0.00 0.00 76 1014.0
20260906141213 57 265 0.0 0.0 0.00 0.00 0.00 76 1014.1
20260906141138 57 265 0.0 0.0 0.00 0.00 0.00 76 1014.1
20260906141117 57 265 0.0 0.0 0.00 0.00 0.00 76 1014.1
20260906141057 57 265 0.0 0.0 0.00 0.00 0.00 76 1014.1
20260906140807 57 265 0.0 0.0 0.00 0.00 0.00 75 1014.2
20260906140733 57 265 0.0 0.0 0.00 0.00 0.00 76 1014.1
20260906140404 57 265 0.0 0.0 0.00 0.00 0.00 75 1014.1
20260906140342 57 265 0.0 0.0 0.00 0.00 0.00 75 1014.1
20260906140321 57 265 0.0 0.0 0.00 0.00 0.00 74 1014.1
20260906140249 57 265 0.0 0.0 0.00 0.00 0.00 74 1014.0
20260906140230 57 265 0.0 0.0 0.00 0.00 0.00 74 1014.0
20260906140212 57 265 0.0 0.0 0.00 0.00 0.00 74 1013.9
20260906135925 57 265 0.0 2.0 0.00 0.00 0.00 73 1013.9
20260906135853 57 265 0.0 2.0 0.00 0.00 0.00 73 1013.9
20260906135836 57 265 0.0 2.0 0.00 0.00 0.00 73 1013.8
20260906135818 57 265 0.0 2.0 0.00 0.00 0.00 73 1013.8
20260906135800 57 265 0.0 2.0 0.00 0.00 0.00 73 1013.8
20260906135740 57 265 0.0 2.0 0.00 0.00 0.00 73 1013.7
20260906134941 57 264 1.0 2.0 0.00 0.00 0.00 73 1013.7
20260906134601 57 259 1.0 3.0 0.00 0.00 0.00 72 1013.7
20260906134518 57 261 1.0 3.0 0.00 0.00 0.00 73 1013.7
20260906134455 57 262 1.0 3.0 0.00 0.00 0.00 73 1013.7
20260906134435 57 260 1.0 3.0 0.00 0.00 0.00 73 1013.7
20260906134052 57 262 1.0 3.0 0.00 0.00 0.00 73 1013.7
20260906133947 57 263 1.0 3.0 0.00 0.00 0.00 73 1013.6
20260906133836 57 263 1.0 3.0 0.00 0.00 0.00 73 1013.7
20260906133735 57 260 1.0 3.0 0.00 0.00 0.00 73 1013.6
20260906133634 57 266 1.0 2.0 0.00 0.00 0.00 73 1013.6
20260906133531 57 257 1.0 3.0 0.00 0.00 0.00 73 1013.6
20260906133429 57 266 1.0 3.0 0.00 0.00 0.00 73 1013.6
20260906133329 57 259 1.0 4.0 0.00 0.00 0.00 73 1013.6
20260906133231 57 265 1.0 4.0 0.00 0.00 0.00 73 1013.7
20260906133142 57 255 1.0 4.0 0.00 0.00 0.00 73 1013.6
20260906133118 57 267 1.0 4.0 0.00 0.00 0.00 73 1013.6
20260906133059 57 258 1.0 4.0 0.00 0.00 0.00 73 1013.6
20260906132730 57 263 2.0 4.0 0.00 0.00 0.00 73 1013.6
20260906132623 57 264 1.0 4.0 0.00 0.00 0.00 73 1013.6
20260906132601 57 267 2.0 4.0 0.00 0.00 0.00 73 1013.6
20260906132537 57 259 2.0 4.0 0.00 0.00 0.00 73 1013.5
20260906132514 57 255 2.0 4.0 0.00 0.00 0.00 73 1013.5
20260906132452 57 266 2.0 4.0 0.00 0.00 0.00 73 1013.5
20260906132416 57 252 2.0 4.0 0.00 0.00 0.00 73 1013.5
20260906131819 57 259 1.0 4.0 0.00 0.00 0.00 73 1013.6
20260906131729 57 269 1.0 4.0 0.00 0.00 0.00 73 1013.6
20260906131652 57 265 1.0 4.0 0.00 0.00 0.00 73 1013.6
20260906131629 57 260 1.0 4.0 0.00 0.00 0.00 73 1013.6
20260906131609 57 259 2.0 4.0 0.00 0.00 0.00 73 1013.6
20260906131545 57 257 1.0 4.0 0.00 0.00 0.00 73 1013.6
20260906131238 57 260 2.0 4.0 0.00 0.00 0.00 73 1013.6
20260906130908 57 257 2.0 4.0 0.00 0.00 0.00 73 1013.6
20260906130807 57 263 3.0 4.0 0.00 0.00 0.00 73 1013.6
20260906130706 57 261 3.0 4.0 0.00 0.00 0.00 73 1013.7
20260906130605 57 249 3.0 4.0 0.00 0.00 0.00 73 1013.6
20260906130505 57 254 2.0 4.0 0.00 0.00 0.00 73 1013.6
20260906130405 57 263 2.0 4.0 0.00 0.00 0.00 74 1013.6
20260906130306 57 244 2.0 4.0 0.00 0.00 0.00 74 1013.6
20260906130206 57 257 2.0 4.0 0.00 0.00 0.00 74 1013.6
20260906130103 57 258 2.0 4.0 0.00 0.00 0.00 74 1013.6
20260906130020 57 260 2.0 4.0 0.00 0.00 0.00 74 1013.6
20260906125957 57 261 2.0 4.0 0.00 0.00 0.00 74 1013.6
20260906125938 57 274 2.0 4.0 0.00 0.00 0.00 74 1013.6
20260906125917 57 261 2.0 4.0 0.00 0.00 0.00 73 1013.6
20260906125607 57 259 2.0 4.0 0.00 0.00 0.00 73 1013.6
20260906125544 57 254 2.0 4.0 0.00 0.00 0.00 74 1013.6
20260906125250 57 243 0.0 4.0 0.00 0.00 0.00 74 1013.6
20260906125214 57 251 0.0 2.0 0.00 0.00 0.00 74 1013.7
20260906125155 57 224 0.0 0.0 0.00 0.00 0.00 74 1013.7
20260906124903 57 224 0.0 0.0 0.00 0.00 0.00 74 1013.8
20260906124845 57 224 0.0 0.0 0.00 0.00 0.00 74 1013.8
20260906124454 57 224 0.0 0.0 0.00 0.00 0.00 74 1013.8
20260906124405 57 224 0.0 0.0 0.00 0.00 0.00 73 1013.8
20260906124341 57 224 0.0 0.0 0.00 0.00 0.00 73 1013.8
20260906124320 57 224 0.0 0.0 0.00 0.00 0.00 73 1013.8
20260906124247 57 224 0.0 0.0 0.00 0.00 0.00 73 1013.8
20260906124225 57 224 0.0 0.0 0.00 0.00 0.00 73 1013.8
20260906123636 57 224 0.0 0.0 0.00 0.00 0.00 73 1013.8
20260906123529 57 224 0.0 0.0 0.00 0.00 0.00 73 1013.8
20260906123430 57 224 0.0 2.0 0.00 0.00 0.00 73 1013.8
20260906123353 57 224 0.0 2.0 0.00 0.00 0.00 73 1013.8
20260906123332 57 224 0.0 2.0 0.00 0.00 0.00 73 1013.8
20260906123312 57 224 0.0 2.0 0.00 0.00 0.00 73 1013.8
20260906122937 57 224 0.0 2.0 0.00 0.00 0.00 73 1013.8
20260906122914 57 224 0.0 2.0 0.00 0.00 0.00 72 1013.8
20260906122850 57 224 0.0 2.0 0.00 0.00 0.00 73 1013.8
20260906122829 57 224 0.0 2.0 0.00 0.00 0.00 72 1013.8
20260906122519 57 266 0.0 3.0 0.00 0.00 0.00 73 1013.8
20260906122456 57 266 0.0 3.0 0.00 0.00 0.00 73 1013.8
20260906122439 57 265 1.0 3.0 0.00 0.00 0.00 73 1013.8
20260906122133 57 256 1.0 3.0 0.00 0.00 0.00 73 1013.9
20260906121804 57 260 2.0 3.0 0.00 0.00 0.00 73 1013.9
20260906121701 57 269 1.0 3.0 0.00 0.00 0.00 73 1014.0
20260906121603 57 261 0.0 3.0 0.00 0.00 0.00 73 1014.0
20260906121501 57 267 0.0 2.0 0.00 0.00 0.00 73 1014.1
20260906121405 57 298 0.0 0.0 0.00 0.00 0.00 73 1014.0
20260906121303 57 298 0.0 0.0 0.00 0.00 0.00 73 1014.0
20260906121213 57 298 0.0 0.0 0.00 0.00 0.00 73 1014.0
20260906121135 57 298 0.0 1.0 0.00 0.00 0.00 73 1014.0
20260906121115 57 298 0.0 2.0 0.00 0.00 0.00 73 1014.0
20260906121057 57 298 0.0 2.0 0.00 0.00 0.00 73 1014.0
20260906121041 57 298 0.0 2.0 0.00 0.00 0.00 73 1014.0
20260906121019 57 298 0.0 2.0 0.00 0.00 0.00 73 1014.0
20260906120944 57 298 0.0 2.0 0.00 0.00 0.00 73 1013.9
20260906120655 57 298 0.0 2.0 0.00 0.00 0.00 73 1013.9
20260906120630 57 298 1.0 2.0 0.00 0.00 0.00 73 1013.9
20260906120610 57 298 1.0 2.0 0.00 0.00 0.00 73 1013.9
20260906120033 57 286 1.0 2.0 0.00 0.00 0.00 73 1014.0
20260906115700 57 297 1.0 2.0 0.00 0.00 0.00 73 1014.0
20260906115617 57 261 1.0 2.0 0.00 0.00 0.00 73 1014.1
20260906115502 57 267 1.0 2.0 0.00 0.00 0.00 73 1014.1
20260906115403 57 273 1.0 3.0 0.00 0.00 0.00 72 1014.1
20260906115330 57 265 0.0 3.0 0.00 0.00 0.00 72 1014.1
20260906115307 57 261 0.0 3.0 0.00 0.00 0.00 72 1014.1
20260906115246 57 272 0.0 3.0 0.00 0.00 0.00 73 1014.1
20260906114902 57 272 1.0 3.0 0.00 0.00 0.00 72 1014.1
20260906114802 57 272 1.0 3.0 0.00 0.00 0.00 72 1014.1
20260906114703 57 272 2.0 3.0 0.00 0.00 0.00 72 1014.0
20260906114555 57 265 2.0 3.0 0.00 0.00 0.00 72 1014.1
20260906114456 57 262 2.0 3.0 0.00 0.00 0.00 72 1014.0
20260906114354 57 265 2.0 3.0 0.00 0.00 0.00 72 1014.1
20260906114253 57 253 1.0 3.0 0.00 0.00 0.00 72 1014.1
20260906114151 57 294 0.0 2.0 0.00 0.00 0.00 72 1014.1
20260906114051 57 256 0.0 2.0 0.00 0.00 0.00 72 1014.0
20260906113946 57 261 0.0 2.0 0.00 0.00 0.00 72 1014.0
20260906113845 57 261 0.0 2.0 0.00 0.00 0.00 73 1014.0
20260906113744 57 261 0.0 2.0 0.00 0.00 0.00 72 1014.0
20260906113701 57 261 0.0 2.0 0.00 0.00 0.00 72 1014.0
20260906113624 57 261 1.0 2.0 0.00 0.00 0.00 73 1014.0
20260906113604 57 261 1.0 2.0 0.00 0.00 0.00 72 1014.0
20260906113305 57 259 0.0 2.0 0.00 0.00 0.00 72 1014.0
20260906113242 57 259 1.0 2.0 0.00 0.00 0.00 72 1014.0
20260906113208 57 259 0.0 2.0 0.00 0.00 0.00 72 1014.0
20260906112917 57 255 0.0 1.0 0.00 0.00 0.00 72 1014.0
20260906112858 57 255 0.0 1.0 0.00 0.00 0.00 72 1014.0
20260906112529 57 255 0.0 2.0 0.00 0.00 0.00 72 1014.0
20260906112430 57 255 0.0 2.0 0.00 0.00 0.00 72 1014.0
20260906112322 57 255 0.0 2.0 0.00 0.00 0.00 71 1014.1
20260906112216 57 255 0.0 2.0 0.00 0.00 0.00 71 1014.1
20260906112139 57 255 0.0 2.0 0.00 0.00 0.00 71 1014.1
20260906112103 57 256 0.0 2.0 0.00 0.00 0.00 71 1014.1
20260906112042 57 256 0.0 2.0 0.00 0.00 0.00 71 1014.1
20260906111713 57 265 1.0 2.0 0.00 0.00 0.00 71 1014.1
20260906111611 57 265 0.0 2.0 0.00 0.00 0.00 71 1014.1
20260906111512 57 331 0.0 0.0 0.00 0.00 0.00 70 1014.1
20260906111421 57 331 0.0 0.0 0.00 0.00 0.00 71 1014.1
20260906111357 57 331 0.0 0.0 0.00 0.00 0.00 70 1014.1
20260906111337 57 331 0.0 0.0 0.00 0.00 0.00 70 1014.1
20260906111005 57 331 0.0 0.0 0.00 0.00 0.00 70 1014.0
20260906110916 57 331 0.0 0.0 0.00 0.00 0.00 70 1014.1
20260906110854 57 331 0.0 0.0 0.00 0.00 0.00 70 1014.1
20260906110835 57 331 0.0 0.0 0.00 0.00 0.00 70 1014.0
20260906110501 57 331 0.0 1.0 0.00 0.00 0.00 70 1014.0
20260906110403 57 331 0.0 1.0 0.00 0.00 0.00 70 1014.1
20260906110301 57 331 0.0 1.0 0.00 0.00 0.00 70 1014.0
20260906110225 57 331 0.0 1.0 0.00 0.00 0.00 70 1014.0
20260906110147 57 331 0.0 1.0 0.00 0.00 0.00 70 1014.0
20260906110125 57 331 0.0 1.0 0.00 0.00 0.00 70 1014.0
20260906110104 57 331 0.0 3.0 0.00 0.00 0.00 70 1014.1
20260906105815 57 331 0.0 4.0 0.00 0.00 0.00 70 1014.1
20260906105429 57 311 0.0 4.0 0.00 0.00 0.00 70 1014.0
20260906105331 57 299 0.0 4.0 0.00 0.00 0.00 70 1014.0
20260906105230 57 299 0.0 4.0 0.00 0.00 0.00 70 1014.1
20260906105204 57 299 0.0 4.0 0.00 0.00 0.00 70 1014.0
20260906105127 57 299 1.0 4.0 0.00 0.00 0.00 70 1014.1
20260906105106 57 299 1.0 4.0 0.00 0.00 0.00 70 1014.1
20260906104816 57 273 0.0 4.0 0.00 0.00 0.00 70 1014.2
20260906104758 57 273 0.0 4.0 0.00 0.00 0.00 71 1014.2
20260906104413 57 273 2.0 4.0 0.00 0.00 0.00 71 1014.2
20260906104312 57 263 2.0 4.0 0.00 0.00 0.00 71 1014.2
20260906104212 57 271 1.0 4.0 0.00 0.00 0.00 71 1014.2
20260906104112 57 350 0.0 7.0 0.00 0.00 0.00 71 1014.1
20260906104017 57 275 1.0 7.0 0.00 0.00 0.00 71 1014.2
20260906103952 57 291 1.0 7.0 0.00 0.00 0.00 71 1014.2
20260906103932 57 324 1.0 7.0 0.00 0.00 0.00 71 1014.2
20260906103907 57 270 1.0 7.0 0.00 0.00 0.00 71 1014.2
20260906103849 57 259 2.0 7.0 0.00 0.00 0.00 71 1014.2
20260906103811 57 276 2.0 7.0 0.00 0.00 0.00 71 1014.2
20260906103752 57 319 2.0 7.0 0.00 0.00 0.00 71 1014.2
20260906103729 57 352 2.0 7.0 0.00 0.00 0.00 71 1014.2
20260906103706 57 304 2.0 7.0 0.00 0.00 0.00 71 1014.2
20260906103644 57 285 2.0 4.0 0.00 0.00 0.00 71 1014.2
20260906103609 57 327 2.0 4.0 0.00 0.00 0.00 71 1014.2
20260906103547 57 319 2.0 4.0 0.00 0.00 0.00 71 1014.1
20260906103526 57 271 1.0 4.0 0.00 0.00 0.00 71 1014.2
20260906103241 57 279 2.0 3.0 0.00 0.00 0.00 71 1014.2
20260906103205 57 290 2.0 3.0 0.00 0.00 0.00 71 1014.2
20260906103143 57 274 1.0 3.0 0.00 0.00 0.00 71 1014.2
20260906103119 57 280 1.0 3.0 0.00 0.00 0.00 71 1014.2
20260906102832 57 325 1.0 4.0 0.00 0.00 0.00 71 1014.2
20260906102526 57 282 1.0 4.0 0.00 0.00 0.00 71 1014.2
20260906102504 57 285 1.0 4.0 0.00 0.00 0.00 71 1014.2
20260906102444 57 286 1.0 4.0 0.00 0.00 0.00 71 1014.2
20260906102423 57 279 2.0 4.0 0.00 0.00 0.00 71 1014.2
20260906102344 57 280 2.0 4.0 0.00 0.00 0.00 71 1014.2
20260906102323 57 310 2.0 4.0 0.00 0.00 0.00 71 1014.2
20260906102032 57 281 2.0 4.0 0.00 0.00 0.00 71 1014.1
20260906102011 57 291 2.0 4.0 0.00 0.00 0.00 71 1014.1
20260906101438 57 305 2.0 4.0 0.00 0.00 0.00 71 1014.1
20260906101417 57 266 2.0 4.0 0.00 0.00 0.00 71 1014.1
20260906100840 57 322 2.0 4.0 0.00 0.00 0.00 71 1014.1
20260906100818 57 272 2.0 6.0 0.00 0.00 0.00 71 1014.1
20260906100755 57 289 2.0 6.0 0.00 0.00 0.00 71 1014.1
20260906100449 57 324 2.0 6.0 0.00 0.00 0.00 71 1014.1
20260906100158 57 352 2.0 6.0 0.00 0.00 0.00 71 1014.1
20260906095907 57 297 3.0 6.0 0.00 0.00 0.00 71 1014.1
20260906095832 57 274 2.0 6.0 0.00 0.00 0.00 71 1014.1
20260906095810 57 282 2.0 6.0 0.00 0.00 0.00 71 1014.1
20260906095748 57 284 2.0 6.0 0.00 0.00 0.00 71 1014.1
20260906095727 57 282 3.0 6.0 0.00 0.00 0.00 71 1014.1
20260906095703 57 295 3.0 6.0 0.00 0.00 0.00 71 1014.1
20260906095627 57 279 2.0 6.0 0.00 0.00 0.00 71 1014.1
20260906095605 57 288 2.0 5.0 0.00 0.00 0.00 71 1014.1
20260906095047 57 265 3.0 6.0 0.00 0.00 0.00 71 1014.0
20260906095008 57 278 3.0 6.0 0.00 0.00 0.00 71 1014.0
20260906094215 57 282 2.0 6.0 0.00 0.00 0.00 71 1013.9
20260906093828 57 276 3.0 6.0 0.00 0.00 0.00 71 1013.9
20260906093754 57 256 2.0 4.0 0.00 0.00 0.00 71 1013.9
20260906093732 57 256 2.0 4.0 0.00 0.00 0.00 71 1013.9
20260906093711 57 294 1.0 4.0 0.00 0.00 0.00 71 1013.9
20260906093327 57 292 1.0 6.0 0.00 0.00 0.00 71 1013.9
20260906093225 57 274 1.0 6.0 0.00 0.00 0.00 71 1014.0
20260906093145 57 293 1.0 7.0 0.00 0.00 0.00 71 1014.0
20260906093125 57 282 1.0 7.0 0.00 0.00 0.00 71 1014.0
20260906093048 57 272 1.0 7.0 0.00 0.00 0.00 71 1013.9
20260906092718 57 289 2.0 7.0 0.00 0.00 0.00 71 1013.9
20260906092616 57 290 3.0 7.0 0.00 0.00 0.00 71 1014.0
20260906092518 57 263 3.0 7.0 0.00 0.00 0.00 71 1014.0
20260906092431 57 266 2.0 7.0 0.00 0.00 0.00 71 1013.9
20260906092406 57 277 3.0 7.0 0.00 0.00 0.00 71 1014.0
20260906092345 57 253 3.0 7.0 0.00 0.00 0.00 71 1013.9
20260906092017 57 265 2.0 6.0 0.00 0.00 0.00 71 1013.9
20260906091913 57 276 2.0 6.0 0.00 0.00 0.00 71 1013.9
20260906091812 57 265 2.0 6.0 0.00 0.00 0.00 71 1013.9
20260906091714 57 271 2.0 6.0 0.00 0.00 0.00 72 1013.9
20260906091614 57 284 3.0 6.0 0.00 0.00 0.00 71 1013.9
20260906091518 57 292 2.0 6.0 0.00 0.00 0.00 71 1013.9
20260906091411 57 280 2.0 6.0 0.00 0.00 0.00 71 1013.9
20260906091310 57 291 3.0 6.0 0.00 0.00 0.00 71 1013.9
20260906091209 57 306 2.0 4.0 0.00 0.00 0.00 71 1013.9
20260906091135 57 290 2.0 4.0 0.00 0.00 0.00 71 1013.9
20260906091112 57 260 2.0 4.0 0.00 0.00 0.00 71 1014.0
20260906091035 57 299 2.0 6.0 0.00 0.00 0.00 71 1013.9
20260906090702 57 287 2.0 7.0 0.00 0.00 0.00 71 1014.0
20260906090602 57 284 1.0 7.0 0.00 0.00 0.00 71 1014.0
20260906090513 57 286 1.0 7.0 0.00 0.00 0.00 70 1014.0
20260906090409 57 288 1.0 7.0 0.00 0.00 0.00 70 1014.1
20260906090345 57 292 2.0 7.0 0.00 0.00 0.00 70 1014.1
20260906090325 57 262 3.0 7.0 0.00 0.00 0.00 70 1014.1
20260906090304 58 261 3.0 7.0 0.00 0.00 0.00 70 1014.1
20260906085956 58 254 1.0 6.0 0.00 0.00 0.00 71 1014.1
20260906085933 58 268 0.0 6.0 0.00 0.00 0.00 70 1014.1
20260906085602 58 303 0.0 4.0 0.00 0.00 0.00 71 1014.2
20260906085505 58 303 1.0 4.0 0.00 0.00 0.00 71 1014.1
20260906085403 58 303 2.0 4.0 0.00 0.00 0.00 71 1014.1
20260906085302 58 297 2.0 4.0 0.00 0.00 0.00 71 1014.1
20260906085201 58 298 1.0 4.0 0.00 0.00 0.00 71 1014.2
20260906085102 58 277 1.0 4.0 0.00 0.00 0.00 71 1014.2
20260906085006 58 277 2.0 4.0 0.00 0.00 0.00 71 1014.2
20260906084916 58 269 2.0 4.0 0.00 0.00 0.00 71 1014.2
20260906084853 58 292 2.0 4.0 0.00 0.00 0.00 70 1014.2
20260906084831 58 263 1.0 4.0 0.00 0.00 0.00 71 1014.2
20260906084503 58 261 2.0 4.0 0.00 0.00 0.00 70 1014.2
20260906084404 58 278 2.0 4.0 0.00 0.00 0.00 71 1014.2
20260906084314 58 279 2.0 4.0 0.00 0.00 0.00 71 1014.2
20260906084252 58 290 2.0 4.0 0.00 0.00 0.00 70 1014.2
20260906084228 58 294 2.0 4.0 0.00 0.00 0.00 71 1014.3
20260906083901 58 288 1.0 7.0 0.00 0.00 0.00 71 1014.2
20260906083801 58 284 1.0 7.0 0.00 0.00 0.00 71 1014.2
20260906083702 58 304 1.0 7.0 0.00 0.00 0.00 71 1014.2
20260906083552 58 305 1.0 7.0 0.00 0.00 0.00 71 1014.3
20260906083455 58 321 2.0 7.0 0.00 0.00 0.00 71 1014.3
20260906083346 58 273 1.0 7.0 0.00 0.00 0.00 71 1014.4
20260906083245 58 288 2.0 7.0 0.00 0.00 0.00 71 1014.4
20260906083145 58 282 3.0 7.0 0.00 0.00 0.00 71 1014.4
20260906083045 58 304 2.0 7.0 0.00 0.00 0.00 72 1014.4
20260906082952 58 306 3.0 7.0 0.00 0.00 0.00 72 1014.3
20260906082854 58 259 2.0 5.0 0.00 0.00 0.00 72 1014.3
20260906082831 58 348 2.0 5.0 0.00 0.00 0.00 72 1014.2
20260906082810 58 295 2.0 3.0 0.00 0.00 0.00 72 1014.3
20260906082449 58 295 2.0 4.0 0.00 0.00 0.00 72 1014.3
20260906082340 58 298 2.0 4.0 0.00 0.00 0.00 72 1014.4
20260906082239 58 291 1.0 4.0 0.00 0.00 0.00 72 1014.3
20260906082140 59 340 1.0 4.0 0.00 0.00 0.00 72 1014.3
20260906082039 59 287 1.0 4.0 0.00 0.00 0.00 72 1014.4
20260906082006 59 298 1.0 4.0 0.00 0.00 0.00 72 1014.4
20260906081929 59 292 1.0 4.0 0.00 0.00 0.00 72 1014.4
20260906081908 59 305 2.0 4.0 0.00 0.00 0.00 72 1014.4
20260906081535 59 280 2.0 4.0 0.00 0.00 0.00 72 1014.5
20260906081447 59 290 2.0 4.0 0.00 0.00 0.00 72 1014.5
20260906081329 59 309 1.0 4.0 0.00 0.00 0.00 72 1014.4
20260906081231 59 263 2.0 4.0 0.00 0.00 0.00 72 1014.5
20260906081129 59 296 2.0 4.0 0.00 0.00 0.00 72 1014.5
20260906081030 59 282 2.0 4.0 0.00 0.00 0.00 72 1014.5
20260906080942 59 323 1.0 4.0 0.00 0.00 0.00 72 1014.5
20260906080829 59 290 1.0 3.0 0.00 0.00 0.00 72 1014.5
20260906080728 59 292 1.0 3.0 0.00 0.00 0.00 72 1014.5
20260906080629 59 280 0.0 3.0 0.00 0.00 0.00 71 1014.4
20260906080529 59 280 1.0 3.0 0.00 0.00 0.00 71 1014.4
20260906080443 59 281 1.0 3.0 0.00 0.00 0.00 71 1014.4
20260906080328 59 272 1.0 4.0 0.00 0.00 0.00 71 1014.4
20260906080229 59 273 2.0 4.0 0.00 0.00 0.00 71 1014.5
20260906080130 59 281 1.0 4.0 0.00 0.00 0.00 72 1014.4
20260906080026 59 277 2.0 4.0 0.00 0.00 0.00 72 1014.4
20260906075938 59 277 2.0 4.0 0.00 0.00 0.00 71 1014.4
20260906075825 59 304 1.0 4.0 0.00 0.00 0.00 71 1014.5
20260906075724 59 266 1.0 4.0 0.00 0.00 0.00 71 1014.4
20260906075624 59 284 2.0 4.0 0.00 0.00 0.00 71 1014.5
20260906075541 59 283 2.0 4.0 0.00 0.00 0.00 71 1014.5
20260906075502 59 267 2.0 4.0 0.00 0.00 0.00 71 1014.4
20260906075438 59 253 2.0 4.0 0.00 0.00 0.00 72 1014.4
20260906075416 59 257 2.0 4.0 0.00 0.00 0.00 72 1014.4
20260906075356 59 245 2.0 4.0 0.00 0.00 0.00 72 1014.4
20260906075333 59 260 2.0 3.0 0.00 0.00 0.00 72 1014.4
20260906075258 59 271 2.0 3.0 0.00 0.00 0.00 72 1014.4
20260906075236 59 270 2.0 3.0 0.00 0.00 0.00 72 1014.4
20260906075214 59 268 2.0 3.0 0.00 0.00 0.00 72 1014.4
20260906075152 59 273 1.0 4.0 0.00 0.00 0.00 72 1014.4
20260906075131 59 277 0.0 4.0 0.00 0.00 0.00 72 1014.4
20260906075054 59 263 0.0 4.0 0.00 0.00 0.00 72 1014.4
20260906074808 59 263 0.0 4.0 0.00 0.00 0.00 72 1014.4
20260906074748 59 263 1.0 4.0 0.00 0.00 0.00 72 1014.4
20260906074442 59 260 2.0 4.0 0.00 0.00 0.00 72 1014.3
20260906074420 59 279 2.0 4.0 0.00 0.00 0.00 72 1014.4
20260906074129 59 274 2.0 4.0 0.00 0.00 0.00 72 1014.4
20260906074110 59 264 2.0 3.0 0.00 0.00 0.00 72 1014.3
20260906074033 59 256 1.0 3.0 0.00 0.00 0.00 72 1014.4
20260906072952 59 175 0.0 1.0 0.00 0.00 0.00 72 1014.4
20260906072932 59 175 0.0 2.0 0.00 0.00 0.00 72 1014.4
20260906072605 59 175 0.0 3.0 0.00 0.00 0.00 71 1014.5
20260906072504 59 175 0.0 3.0 0.00 0.00 0.00 71 1014.5
20260906072401 60 175 0.0 3.0 0.00 0.00 0.00 71 1014.5
20260906072337 60 175 0.0 3.0 0.00 0.00 0.00 71 1014.5
20260906072317 60 175 0.0 3.0 0.00 0.00 0.00 71 1014.5
20260906072258 60 175 1.0 3.0 0.00 0.00 0.00 71 1014.5
20260906071952 60 176 1.0 3.0 0.00 0.00 0.00 70 1014.5
20260906071931 60 174 1.0 3.0 0.00 0.00 0.00 71 1014.5
20260906071600 60 348 0.0 0.0 0.00 0.00 0.00 70 1014.6
20260906071503 60 348 0.0 0.0 0.00 0.00 0.00 71 1014.6
20260906071401 60 348 0.0 0.0 0.00 0.00 0.00 70 1014.6
20260906071302 60 348 0.0 0.0 0.00 0.00 0.00 70 1014.6
20260906071202 60 348 0.0 0.0 0.00 0.00 0.00 70 1014.6
20260906071103 60 348 0.0 0.0 0.00 0.00 0.00 70 1014.6
20260906071001 60 348 0.0 0.0 0.00 0.00 0.00 69 1014.7
20260906070901 60 348 0.0 0.0 0.00 0.00 0.00 69 1014.6
20260906070801 60 348 0.0 0.0 0.00 0.00 0.00 69 1014.7
20260906070650 60 348 0.0 0.0 0.00 0.00 0.00 69 1014.7
20260906070533 60 348 0.0 0.0 0.00 0.00 0.00 69 1014.6
20260906070431 60 348 0.0 0.0 0.00 0.00 0.00 69 1014.6
20260906070329 60 348 0.0 0.0 0.00 0.00 0.00 69 1014.6
20260906070229 60 348 0.0 3.0 0.00 0.00 0.00 69 1014.6
20260906070129 61 348 0.0 3.0 0.00 0.00 0.00 69 1014.6
20260906070030 61 348 0.0 3.0 0.00 0.00 0.00 69 1014.6
20260906065926 61 348 0.0 3.0 0.00 0.00 0.00 69 1014.6
20260906065820 61 348 0.0 3.0 0.00 0.00 0.00 69 1014.6
20260906065720 61 348 0.0 3.0 0.00 0.00 0.00 69 1014.5
20260906065633 61 348 0.0 3.0 0.00 0.00 0.00 69 1014.5
20260906065613 60 348 0.0 3.0 0.00 0.00 0.00 69 1014.4
20260906065552 60 348 1.0 3.0 0.00 0.00 0.00 69 1014.5
20260906065241 60 341 1.0 3.0 0.00 0.00 0.00 69 1014.4
20260906065219 60 311 1.0 2.0 0.00 0.00 0.00 69 1014.5
20260906065157 60 293 1.0 2.0 0.00 0.00 0.00 69 1014.4
20260906065138 60 300 1.0 3.0 0.00 0.00 0.00 69 1014.5
20260906065059 60 303 0.0 3.0 0.00 0.00 0.00 69 1014.5
20260906064501 60 310 1.0 3.0 0.00 0.00 0.00 69 1014.6
20260906064410 60 293 1.0 4.0 0.00 0.00 0.00 69 1014.6
20260906064301 60 288 1.0 4.0 0.00 0.00 0.00 69 1014.6
20260906064234 60 313 1.0 4.0 0.00 0.00 0.00 69 1014.6
20260906064212 60 281 2.0 4.0 0.00 0.00 0.00 69 1014.6
20260906064150 60 266 1.0 4.0 0.00 0.00 0.00 68 1014.6
20260906064129 60 258 1.0 4.0 0.00 0.00 0.00 69 1014.6
20260906063821 60 279 2.0 4.0 0.00 0.00 0.00 69 1014.6
20260906063801 60 277 2.0 4.0 0.00 0.00 0.00 69 1014.6
20260906063740 60 274 2.0 4.0 0.00 0.00 0.00 69 1014.5
20260906063431 60 259 2.0 3.0 0.00 0.00 0.00 68 1014.5
20260906063100 60 265 1.0 3.0 0.00 0.00 0.00 68 1014.6
20260906063002 60 265 1.0 3.0 0.00 0.00 0.00 68 1014.5
20260906062905 60 274 2.0 3.0 0.00 0.00 0.00 68 1014.6
20260906062802 60 267 2.0 3.0 0.00 0.00 0.00 68 1014.6
20260906062701 60 271 1.0 2.0 0.00 0.00 0.00 68 1014.6
20260906062601 61 263 1.0 2.0 0.00 0.00 0.00 68 1014.6
20260906062525 61 271 1.0 2.0 0.00 0.00 0.00 68 1014.6
20260906062501 61 261 1.0 2.0 0.00 0.00 0.00 68 1014.7
20260906062425 61 265 0.0 4.0 0.00 0.00 0.00 68 1014.7
20260906062403 61 244 0.0 4.0 0.00 0.00 0.00 68 1014.6
20260906062110 61 182 0.0 4.0 0.00 0.00 0.00 67 1014.7
20260906062051 61 180 0.0 4.0 0.00 0.00 0.00 67 1014.7
20260906061703 61 180 1.0 4.0 0.00 0.00 0.00 67 1014.6
20260906061600 61 178 1.0 4.0 0.00 0.00 0.00 67 1014.6
20260906061500 61 190 1.0 4.0 0.00 0.00 0.00 67 1014.6
20260906061403 61 186 1.0 4.0 0.00 0.00 0.00 67 1014.6
20260906061301 61 184 1.0 3.0 0.00 0.00 0.00 67 1014.6
20260906061201 61 181 2.0 3.0 0.00 0.00 0.00 67 1014.6
20260906061102 61 178 2.0 3.0 0.00 0.00 0.00 67 1014.6
20260906061001 61 186 1.0 3.0 0.00 0.00 0.00 67 1014.6
20260906060902 61 161 1.0 3.0 0.00 0.00 0.00 67 1014.6
20260906060801 61 187 0.0 3.0 0.00 0.00 0.00 67 1014.6
20260906060702 61 244 1.0 3.0 0.00 0.00 0.00 67 1014.7
20260906060601 62 242 1.0 3.0 0.00 0.00 0.00 66 1014.6
20260906060535 62 246 0.0 2.0 0.00 0.00 0.00 67 1014.6
20260906060509 62 269 0.0 2.0 0.00 0.00 0.00 67 1014.7
20260906060433 62 272 0.0 2.0 0.00 0.00 0.00 67 1014.7
20260906060411 62 265 0.0 2.0 0.00 0.00 0.00 67 1014.7
20260906060120 62 259 0.0 2.0 0.00 0.00 0.00 67 1014.7
20260906055736 62 249 1.0 2.0 0.00 0.00 0.00 67 1014.7
20260906055634 62 248 1.0 2.0 0.00 0.00 0.00 67 1014.7
20260906055607 62 252 0.0 2.0 0.00 0.00 0.00 67 1014.8
20260906055545 62 122 0.0 0.0 0.00 0.00 0.00 67 1014.7
20260906055510 62 122 0.0 0.0 0.00 0.00 0.00 68 1014.8
20260906055216 62 122 0.0 0.0 0.00 0.00 0.00 68 1014.8
20260906055157 62 122 0.0 0.0 0.00 0.00 0.00 68 1014.7
20260906054833 62 122 0.0 0.0 0.00 0.00 0.00 68 1014.8
20260906054729 62 122 0.0 0.0 0.00 0.00 0.00 68 1014.8
20260906054632 62 122 0.0 0.0 0.00 0.00 0.00 68 1014.9
20260906054530 62 122 0.0 0.0 0.00 0.00 0.00 67 1014.9
20260906054430 62 122 0.0 0.0 0.00 0.00 0.00 67 1014.9
20260906054402 62 122 0.0 0.0 0.00 0.00 0.00 67 1014.9
20260906054324 62 122 0.0 0.0 0.00 0.00 0.00 67 1014.9
20260906054305 62 122 0.0 0.0 0.00 0.00 0.00 67 1014.9
20260906054244 62 122 0.0 0.0 0.00 0.00 0.00 67 1014.9
20260906053938 63 122 0.0 0.0 0.00 0.00 0.00 67 1015.0
20260906053606 63 122 0.0 0.0 0.00 0.00 0.00 66 1015.0
20260906053502 63 122 0.0 0.0 0.00 0.00 0.00 66 1014.9
20260906053440 63 122 0.0 0.0 0.00 0.00 0.00 66 1014.9
20260906053404 63 122 0.0 0.0 0.00 0.00 0.00 66 1014.8
20260906053343 63 122 0.0 0.0 0.00 0.00 0.00 66 1014.8
20260906053324 63 122 0.0 0.0 0.00 0.00 0.00 66 1014.8
20260906053306 63 122 0.0 0.0 0.00 0.00 0.00 66 1014.8
20260906053244 63 122 0.0 0.0 0.00 0.00 0.00 65 1014.8
20260906053212 63 122 0.0 0.0 0.00 0.00 0.00 65 1014.8
20260906053154 63 122 0.0 0.0 0.00 0.00 0.00 65 1014.8
20260906052905 63 122 0.0 0.0 0.00 0.00 0.00 65 1014.8
20260906052845 63 122 0.0 0.0 0.00 0.00 0.00 65 1014.8
20260906052312 63 122 0.0 0.0 0.00 0.00 0.00 65 1014.8
20260906052254 63 122 0.0 0.0 0.00 0.00 0.00 65 1014.8
20260906052234 63 122 0.0 0.0 0.00 0.00 0.00 65 1014.8
20260906052159 63 122 0.0 0.0 0.00 0.00 0.00 65 1014.8
20260906051911 64 122 0.0 0.0 0.00 0.00 0.00 65 1014.9
20260906051852 64 122 0.0 0.0 0.00 0.00 0.00 65 1014.9
20260906051833 64 122 0.0 0.0 0.00 0.00 0.00 65 1014.9
20260906051525 64 122 0.0 0.0 0.00 0.00 0.00 65 1014.9
20260906051233 64 122 0.0 0.0 0.00 0.00 0.00 65 1014.9
20260906051212 64 122 0.0 0.0 0.00 0.00 0.00 65 1014.9
20260906050632 64 122 0.0 0.0 0.00 0.00 0.00 64 1014.9
20260906050612 64 122 0.0 0.0 0.00 0.00 0.00 64 1014.8
20260906050550 64 122 0.0 0.0 0.00 0.00 0.00 64 1014.8
20260906050242 64 122 0.0 0.0 0.00 0.00 0.00 64 1014.9
20260906050223 65 122 0.0 0.0 0.00 0.00 0.00 64 1014.9
20260906050204 65 122 0.0 0.0 0.00 0.00 0.00 64 1014.9
20260906050141 65 122 0.0 0.0 0.00 0.00 0.00 63 1014.9
20260906045529 65 122 0.0 0.0 0.00 0.00 0.00 63 1015.0
20260906045455 65 122 0.0 0.0 0.00 0.00 0.00 63 1015.0
20260906045434 65 122 0.0 0.0 0.00 0.00 0.00 63 1014.9
20260906045359 65 122 0.0 0.0 0.00 0.00 0.00 63 1014.9
20260906045032 65 122 0.0 0.0 0.00 0.00 0.00 63 1015.0
20260906044930 65 122 0.0 0.0 0.00 0.00 0.00 62 1015.0
20260906044832 65 122 0.0 0.0 0.00 0.00 0.00 63 1015.0
20260906044730 65 122 0.0 0.0 0.00 0.00 0.00 63 1015.0
20260906044704 65 122 0.0 0.0 0.00 0.00 0.00 62 1015.0
20260906044644 65 122 0.0 0.0 0.00 0.00 0.00 62 1015.0
20260906044626 65 122 0.0 1.0 0.00 0.00 0.00 62 1015.1
20260906044605 65 122 0.0 1.0 0.00 0.00 0.00 62 1015.1
20260906044301 65 122 0.0 2.0 0.00 0.00 0.00 62 1015.0
20260906043944 66 122 0.0 2.0 0.00 0.00 0.00 62 1015.0
20260906043925 66 122 0.0 2.0 0.00 0.00 0.00 62 1014.9
20260906043846 66 122 0.0 2.0 0.00 0.00 0.00 62 1014.9
20260906043829 66 122 0.0 2.0 0.00 0.00 0.00 62 1014.9
20260906043805 66 122 0.0 2.0 0.00 0.00 0.00 61 1015.0
20260906043517 66 123 1.0 2.0 0.00 0.00 0.00 61 1014.9
20260906043146 66 134 1.0 2.0 0.00 0.00 0.00 61 1014.9
20260906043125 66 144 0.0 2.0 0.00 0.00 0.00 60 1015.0
20260906043101 66 180 0.0 1.0 0.00 0.00 0.00 60 1015.0
20260906043041 66 257 0.0 1.0 0.00 0.00 0.00 60 1014.9
20260906043004 67 259 0.0 2.0 0.00 0.00 0.00 60 1014.9
20260906042944 67 259 0.0 3.0 0.00 0.00 0.00 60 1015.0
20260906042924 67 259 0.0 3.0 0.00 0.00 0.00 60 1014.9
20260906042904 67 259 0.0 3.0 0.00 0.00 0.00 60 1015.0
20260906042849 67 259 0.0 3.0 0.00 0.00 0.00 60 1014.9
20260906042548 67 260 0.0 3.0 0.00 0.00 0.00 60 1015.0
20260906042527 67 260 1.0 3.0 0.00 0.00 0.00 59 1014.9
20260906042238 67 259 2.0 3.0 0.00 0.00 0.00 59 1015.0
20260906041930 67 261 1.0 4.0 0.00 0.00 0.00 59 1014.9
20260906041330 67 265 1.0 4.0 0.00 0.00 0.00 59 1014.9
20260906041230 67 256 2.0 4.0 0.00 0.00 0.00 59 1014.9
20260906041143 67 265 2.0 4.0 0.00 0.00 0.00 59 1014.9
20260906041122 67 257 2.0 4.0 0.00 0.00 0.00 59 1014.9
20260906041100 67 255 2.0 4.0 0.00 0.00 0.00 59 1014.9
20260906040729 67 263 2.0 4.0 0.00 0.00 0.00 59 1014.9
20260906040633 67 243 2.0 4.0 0.00 0.00 0.00 59 1014.8
20260906040530 67 259 2.0 4.0 0.00 0.00 0.00 59 1014.9
20260906040430 67 259 2.0 4.0 0.00 0.00 0.00 59 1014.8
20260906040331 67 252 2.0 4.0 0.00 0.00 0.00 59 1014.8
20260906040230 67 311 1.0 4.0 0.00 0.00 0.00 59 1014.9
20260906040131 67 277 2.0 4.0 0.00 0.00 0.00 59 1014.9
20260906040030 67 269 2.0 4.0 0.00 0.00 0.00 59 1014.8
20260906035944 67 261 2.0 4.0 0.00 0.00 0.00 59 1014.9
20260906035923 67 262 2.0 4.0 0.00 0.00 0.00 59 1014.8
20260906035847 67 263 1.0 3.0 0.00 0.00 0.00 59 1014.9
20260906035826 67 273 0.0 3.0 0.00 0.00 0.00 59 1014.9
20260906035808 67 269 0.0 3.0 0.00 0.00 0.00 58 1014.9
20260906035519 67 269 0.0 3.0 0.00 0.00 0.00 58 1014.9
20260906035121 67 258 0.0 3.0 0.00 0.00 0.00 58 1014.9
20260906035021 67 257 0.0 2.0 0.00 0.00 0.00 58 1014.9
20260906034913 67 257 0.0 2.0 0.00 0.00 0.00 58 1014.9
20260906034852 67 257 0.0 3.0 0.00 0.00 0.00 58 1014.9
20260906034817 67 257 0.0 4.0 0.00 0.00 0.00 58 1014.8
20260906034758 67 257 1.0 4.0 0.00 0.00 0.00 58 1014.8
20260906034738 67 257 1.0 4.0 0.00 0.00 0.00 58 1014.8
20260906034445 67 257 0.0 4.0 0.00 0.00 0.00 58 1014.8
20260906034101 68 250 1.0 4.0 0.00 0.00 0.00 58 1014.7
20260906034003 68 250 2.0 4.0 0.00 0.00 0.00 58 1014.7
20260906033900 68 257 2.0 4.0 0.00 0.00 0.00 57 1014.7
20260906033831 67 252 2.0 4.0 0.00 0.00 0.00 57 1014.7
20260906033752 68 268 2.0 4.0 0.00 0.00 0.00 57 1014.7
20260906033731 67 259 3.0 4.0 0.00 0.00 0.00 57 1014.7
20260906033402 67 271 1.0 4.0 0.00 0.00 0.00 57 1014.7
20260906033300 67 253 0.0 4.0 0.00 0.00 0.00 57 1014.8
20260906033202 67 280 2.0 4.0 0.00 0.00 0.00 56 1014.8
20260906033059 67 275 2.0 4.0 0.00 0.00 0.00 56 1014.7
20260906032959 67 275 1.0 4.0 0.00 0.00 0.00 55 1014.7
20260906032858 67 264 2.0 4.0 0.00 0.00 0.00 56 1014.7
20260906032758 67 277 2.0 4.0 0.00 0.00 0.00 55 1014.7
20260906032659 67 275 2.0 4.0 0.00 0.00 0.00 55 1014.6
20260906032611 67 251 2.0 2.0 0.00 0.00 0.00 56 1014.6
20260906032548 67 271 2.0 2.0 0.00 0.00 0.00 56 1014.7
20260906032526 67 242 2.0 2.0 0.00 0.00 0.00 56 1014.6
20260906032155 67 261 1.0 2.0 0.00 0.00 0.00 55 1014.5
20260906032134 68 255 0.0 2.0 0.00 0.00 0.00 54 1014.5
20260906032111 68 225 0.0 2.0 0.00 0.00 0.00 55 1014.5
20260906032051 68 107 0.0 1.0 0.00 0.00 0.00 55 1014.6
20260906031747 68 107 0.0 1.0 0.00 0.00 0.00 54 1014.5
20260906031727 68 107 0.0 1.0 0.00 0.00 0.00 54 1014.5
20260906031705 68 107 0.0 1.0 0.00 0.00 0.00 54 1014.5
20260906031643 68 107 0.0 1.0 0.00 0.00 0.00 54 1014.4
20260906031030 69 107 0.0 1.0 0.00 0.00 0.00 54 1014.4
20260906030929 69 107 0.0 1.0 0.00 0.00 0.00 53 1014.4
20260906030856 69 107 0.0 1.0 0.00 0.00 0.00 53 1014.4
20260906030832 69 107 0.0 1.0 0.00 0.00 0.00 52 1014.5
20260906030759 69 107 0.0 1.0 0.00 0.00 0.00 53 1014.4
20260906030429 69 107 0.0 1.0 0.00 0.00 0.00 52 1014.4
20260906030328 69 107 0.0 1.0 0.00 0.00 0.00 52 1014.4
20260906030236 69 107 0.0 1.0 0.00 0.00 0.00 51 1014.4
20260906030127 69 107 0.0 0.0 0.00 0.00 0.00 51 1014.4
20260906030025 69 107 0.0 0.0 0.00 0.00 0.00 51 1014.4
20260906025926 69 107 0.0 0.0 0.00 0.00 0.00 51 1014.4
20260906025820 70 107 0.0 0.0 0.00 0.00 0.00 51 1014.4
20260906025710 70 107 0.0 0.0 0.00 0.00 0.00 51 1014.4
20260906025606 70 107 0.0 0.0 0.00 0.00 0.00 51 1014.5
20260906025504 70 107 0.0 0.0 0.00 0.00 0.00 50 1014.4
20260906025401 70 107 0.0 0.0 0.00 0.00 0.00 50 1014.5
20260906025328 70 107 0.0 0.0 0.00 0.00 0.00 50 1014.4
20260906025250 70 107 0.0 0.0 0.00 0.00 0.00 50 1014.4
20260906025231 70 107 0.0 0.0 0.00 0.00 0.00 50 1014.4
20260906024904 70 107 0.0 0.0 0.00 0.00 0.00 49 1014.5
20260906024801 70 107 0.0 0.0 0.00 0.00 0.00 49 1014.4
20260906024701 71 107 0.0 0.0 0.00 0.00 0.00 49 1014.4
20260906024558 71 107 0.0 0.0 0.00 0.00 0.00 48 1014.4
20260906024456 71 107 0.0 1.0 0.00 0.00 0.00 48 1014.4
20260906024356 71 107 0.0 1.0 0.00 0.00 0.00 48 1014.4
20260906024255 71 107 0.0 1.0 0.00 0.00 0.00 48 1014.4
20260906024158 71 107 0.0 1.0 0.00 0.00 0.00 48 1014.4
20260906024123 71 107 0.0 1.0 0.00 0.00 0.00 47 1014.4
20260906024104 71 107 0.0 1.0 0.00 0.00 0.00 47 1014.3
20260906023735 71 107 0.0 1.0 0.00 0.00 0.00 47 1014.3
20260906023647 71 107 0.0 1.0 0.00 0.00 0.00 47 1014.3
20260906023627 71 107 0.0 1.0 0.00 0.00 0.00 46 1014.3
20260906023604 71 107 0.0 1.0 0.00 0.00 0.00 46 1014.3
20260906023545 71 107 1.0 1.0 0.00 0.00 0.00 46 1014.3
20260906023524 71 107 0.0 1.0 0.00 0.00 0.00 46 1014.3
20260906023449 72 107 0.0 1.0 0.00 0.00 0.00 46 1014.3
20260906023202 72 107 0.0 1.0 0.00 0.00 0.00 45 1014.3
20260906022913 72 107 0.0 1.0 0.00 0.00 0.00 45 1014.2
20260906022837 72 107 0.0 2.0 0.00 0.00 0.00 45 1014.2
20260906022546 72 107 0.0 2.0 0.00 0.00 0.00 45 1014.3
20260906022218 72 107 0.0 2.0 0.00 0.00 0.00 44 1014.2
20260906022113 72 107 0.0 2.0 0.00 0.00 0.00 45 1014.3
20260906022008 72 107 0.0 2.0 0.00 0.00 0.00 45 1014.3
20260906021904 72 107 1.0 2.0 0.00 0.00 0.00 44 1014.3
20260906021801 72 107 1.0 2.0 0.00 0.00 0.00 44 1014.3
20260906021716 73 107 0.0 2.0 0.00 0.00 0.00 44 1014.3
20260906021602 73 111 0.0 2.0 0.00 0.00 0.00 45 1014.3
20260906021523 73 111 0.0 2.0 0.00 0.00 0.00 45 1014.3
20260906021502 73 111 1.0 2.0 0.00 0.00 0.00 45 1014.3
20260906021443 73 111 1.0 2.0 0.00 0.00 0.00 44 1014.3
20260906021116 73 112 0.0 2.0 0.00 0.00 0.00 45 1014.3
20260906021052 73 113 1.0 2.0 0.00 0.00 0.00 45 1014.3
20260906021032 73 94 1.0 1.0 0.00 0.00 0.00 44 1014.3
20260906020710 73 88 1.0 1.0 0.00 0.00 0.00 44 1014.3
20260906020602 73 84 0.0 1.0 0.00 0.00 0.00 44 1014.3
20260906020502 73 78 0.0 1.0 0.00 0.00 0.00 44 1014.4
20260906020401 73 112 0.0 2.0 0.00 0.00 0.00 45 1014.3
20260906020303 73 112 0.0 2.0 0.00 0.00 0.00 45 1014.3
20260906020230 74 112 1.0 2.0 0.00 0.00 0.00 45 1014.3
20260906020154 74 112 0.0 2.0 0.00 0.00 0.00 44 1014.3
20260906020133 74 93 0.0 2.0 0.00 0.00 0.00 45 1014.3
20260906015801 74 76 0.0 2.0 0.00 0.00 0.00 45 1014.3
20260906015708 74 76 0.0 2.0 0.00 0.00 0.00 45 1014.3
20260906015617 74 76 1.0 2.0 0.00 0.00 0.00 45 1014.3
20260906015557 74 76 1.0 2.0 0.00 0.00 0.00 44 1014.3
20260906015535 74 82 0.0 2.0 0.00 0.00 0.00 44 1014.3
20260906015204 74 352 1.0 2.0 0.00 0.00 0.00 45 1014.3
20260906015103 74 352 1.0 2.0 0.00 0.00 0.00 44 1014.3
20260906015000 74 0 1.0 2.0 0.00 0.00 0.00 44 1014.2
20260906014923 74 19 1.0 3.0 0.00 0.00 0.00 45 1014.2
20260906014902 74 348 0.0 4.0 0.00 0.00 0.00 44 1014.2
20260906014841 74 342 0.0 4.0 0.00 0.00 0.00 44 1014.2
20260906014429 74 344 0.0 4.0 0.00 0.00 0.00 45 1014.2
20260906014331 74 339 1.0 4.0 0.00 0.00 0.00 44 1014.2
20260906014230 74 14 1.0 4.0 0.00 0.00 0.00 45 1014.2
20260906014143 74 27 2.0 4.0 0.00 0.00 0.00 44 1014.2
20260906014119 75 15 2.0 4.0 0.00 0.00 0.00 43 1014.1
20260906014059 75 352 1.0 4.0 0.00 0.00 0.00 43 1014.1
20260906014037 75 352 1.0 2.0 0.00 0.00 0.00 43 1014.1
20260906014015 75 5 1.0 2.0 0.00 0.00 0.00 44 1014.1
20260906013936 75 39 1.0 2.0 0.00 0.00 0.00 43 1014.2
20260906013414 75 55 1.0 2.0 0.00 0.00 0.00 43 1014.1
20260906013353 75 50 0.0 2.0 0.00 0.00 0.00 43 1014.1
20260906013008 75 338 1.0 2.0 0.00 0.00 0.00 42 1014.1
20260906012944 75 352 0.0 2.0 0.00 0.00 0.00 42 1014.1
20260906012922 75 82 0.0 2.0 0.00 0.00 0.00 42 1014.1
20260906012901 76 68 0.0 2.0 0.00 0.00 0.00 42 1014.1
20260906012824 76 71 1.0 2.0 0.00 0.00 0.00 42 1014.1
20260906012535 76 74 0.0 2.0 0.00 0.00 0.00 41 1014.1
20260906012202 76 162 0.0 2.0 0.00 0.00 0.00 42 1014.2
20260906012101 76 160 0.0 2.0 0.00 0.00 0.00 42 1014.2
20260906012001 75 248 0.0 2.0 0.00 0.00 0.00 42 1014.2
20260906011901 75 249 1.0 2.0 0.00 0.00 0.00 42 1014.2
20260906011802 75 249 1.0 2.0 0.00 0.00 0.00 42 1014.2
20260906011726 75 248 1.0 3.0 0.00 0.00 0.00 42 1014.2
20260906011649 75 250 1.0 3.0 0.00 0.00 0.00 42 1014.2
20260906011628 75 269 0.0 4.0 0.00 0.00 0.00 44 1014.2
20260906011253 74 352 0.0 5.0 0.00 0.00 0.00 44 1014.2
20260906011152 74 352 0.0 5.0 0.00 0.00 0.00 44 1014.2
20260906011052 74 352 1.0 5.0 0.00 0.00 0.00 44 1014.1
20260906010952 74 352 2.0 5.0 0.00 0.00 0.00 43 1014.2
20260906010830 74 9 2.0 5.0 0.00 0.00 0.00 43 1014.2
20260906010800 74 347 2.0 5.0 0.00 0.00 0.00 42 1014.2
20260906010738 74 14 3.0 5.0 0.00 0.00 0.00 42 1014.2
20260906010701 74 5 3.0 5.0 0.00 0.00 0.00 43 1014.2
20260906010400 74 345 2.0 5.0 0.00 0.00 0.00 44 1014.1
20260906010338 74 15 2.0 5.0 0.00 0.00 0.00 44 1014.1
20260906010316 74 340 3.0 5.0 0.00 0.00 0.00 43 1014.2
20260906005929 75 5 1.0 5.0 0.00 0.00 0.00 43 1014.2
20260906005830 74 321 1.0 5.0 0.00 0.00 0.00 44 1014.2
20260906005729 74 324 1.0 5.0 0.00 0.00 0.00 44 1014.2
20260906005642 74 49 2.0 5.0 0.00 0.00 0.00 44 1014.2
20260906005530 75 352 3.0 5.0 0.00 0.00 0.00 44 1014.3
20260906005431 75 17 2.0 5.0 0.00 0.00 0.00 44 1014.3
20260906005359 75 15 2.0 4.0 0.00 0.00 0.00 44 1014.2
20260906005335 75 61 1.0 4.0 0.00 0.00 0.00 45 1014.3
20260906005313 75 105 1.0 3.0 0.00 0.00 0.00 44 1014.2
20260906004928 75 77 1.0 3.0 0.00 0.00 0.00 43 1014.2
20260906004900 75 110 1.0 3.0 0.00 0.00 0.00 43 1014.2
20260906004836 75 115 1.0 3.0 0.00 0.00 0.00 44 1014.3
20260906004817 75 44 1.0 3.0 0.00 0.00 0.00 45 1014.3
20260906004432 74 50 1.0 4.0 0.00 0.00 0.00 44 1014.3
20260906004330 74 81 1.0 4.0 0.00 0.00 0.00 44 1014.3
20260906004245 74 99 2.0 4.0 0.00 0.00 0.00 43 1014.3
20260906004225 74 90 2.0 5.0 0.00 0.00 0.00 43 1014.3
20260906004148 74 111 2.0 5.0 0.00 0.00 0.00 43 1014.3
20260906004126 74 83 1.0 5.0 0.00 0.00 0.00 43 1014.3
20260906004105 74 86 1.0 5.0 0.00 0.00 0.00 44 1014.3
20260906004042 74 66 2.0 5.0 0.00 0.00 0.00 43 1014.3
20260906003448 74 109 1.0 5.0 0.00 0.00 0.00 43 1014.2
20260906003425 75 164 2.0 5.0 0.00 0.00 0.00 42 1014.3
20260906003402 75 154 3.0 5.0 0.00 0.00 0.00 43 1014.3
20260906003030 75 61 2.0 7.0 0.00 0.00 0.00 43 1014.3
20260906002931 75 154 1.0 7.0 0.00 0.00 0.00 43 1014.3
20260906002849 74 154 0.0 7.0 0.00 0.00 0.00 44 1014.3
20260906002828 74 96 1.0 7.0 0.00 0.00 0.00 44 1014.3
20260906002808 74 5 2.0 7.0 0.00 0.00 0.00 44 1014.3
20260906002732 74 12 2.0 7.0 0.00 0.00 0.00 43 1014.3
20260906002440 74 85 2.0 7.0 0.00 0.00 0.00 43 1014.4
20260906002419 74 169 3.0 7.0 0.00 0.00 0.00 43 1014.4
20260906002357 75 81 3.0 7.0 0.00 0.00 0.00 43 1014.3
20260906002048 75 351 2.0 4.0 0.00 0.00 0.00 43 1014.4
20260906002028 75 64 2.0 4.0 0.00 0.00 0.00 43 1014.4
20260906002006 75 119 3.0 4.0 0.00 0.00 0.00 43 1014.4
20260906001945 75 84 2.0 4.0 0.00 0.00 0.00 43 1014.3
20260906001639 75 74 2.0 4.0 0.00 0.00 0.00 43 1014.4
20260906001617 75 47 1.0 5.0 0.00 0.00 0.00 43 1014.4
20260906001552 75 209 1.0 5.0 0.00 0.00 0.00 43 1014.4
20260906001245 74 139 1.0 5.0 0.00 0.00 0.00 44 1014.4
20260906000955 74 180 2.0 5.0 0.00 0.00 0.00 43 1014.4
20260906000658 74 126 2.0 5.0 0.00 0.00 0.00 43 1014.4
20260906000620 74 149 2.0 5.0 0.00 0.00 0.00 43 1014.4
20260906000558 74 121 2.0 5.0 0.00 0.00 0.00 43 1014.4
20260906000248 74 200 2.0 4.0 0.00 0.00 0.00 43 1014.4
20260906000226 74 173 2.0 4.0 0.00 0.00 0.00 43 1014.4
20260906000147 74 165 2.0 4.0 0.00 0.00 0.00 43 1014.5
20260905235846 74 162 2.0 4.0 0.00 0.00 0.00 43 1014.4
20260905235823 74 123 2.0 4.0 0.00 0.00 0.00 44 1014.4
20260905235803 74 84 2.0 4.0 0.00 0.00 0.00 44 1014.4
20260905235726 74 73 1.0 5.0 0.00 0.00 0.00 44 1014.4
20260905235431 74 44 2.0 5.0 0.00 0.00 0.00 44 1014.5
20260905235410 74 109 2.0 5.0 0.00 0.00 0.00 45 1014.4